Time,TemperatureF,DewpointF,PressureIn,WindDirection,WindDirectionDegrees,WindSpeedMPH,WindSpeedGustMPH,Humidity,HourlyPrecipIn,Conditions,Clouds,dailyrainin,SoftwareType,DateUTC
2013-06-29 00:00:00,62.2,-99.9,-100.00,NNE,18,0.0,0.0,-999,0.00,,---,0.00,VWS V14.01,2013-06-29 04:00:00,
2013-06-29 00:01:00,62.2,-99.9,-100.00,NNE,18,0.0,0.0,-999,0.00,,---,0.00,VWS V14.01,2013-06-29 04:01:00,
2013-06-29 00:06:00,61.6,-99.9,-100.00,NNE,18,0.0,0.0,-999,0.00,,---,0.00,VWS V14.01,2013-06-29 04:06:00,
2013-06-29 00:11:00,61.9,-99.9,-100.00,NNE,18,0.0,0.0,-999,0.00,,---,0.00,VWS V14.01,2013-06-29 04:11:00,
2013-06-29 00:16:00,61.9,-99.9,-100.00,NNE,18,0.0,0.0,-999,0.00,,---,0.00,VWS V14.01,2013-06-29 04:16:00,
2013-06-29 00:21:00,62.2,-99.9,-100.00,NNE,18,0.0,0.0,-999,0.00,,---,0.00,VWS V14.01,2013-06-29 04:21:00,
2013-06-29 00:22:00,62.2,-99.9,-100.00,NNE,18,0.0,0.0,-999,0.00,,---,0.00,VWS V14.01,2013-06-29 04:22:00,
2013-06-29 00:26:00,62.2,-99.9,-100.00,NNE,18,0.0,0.0,-999,0.00,,---,0.00,VWS V14.01,2013-06-29 04:26:00,
2013-06-29 00:27:00,62.2,-99.9,-100.00,NNE,18,0.0,0.0,-999,0.00,,---,0.00,VWS V14.01,2013-06-29 04:27:00,
2013-06-29 00:31:00,62.5,-99.9,-100.00,NNE,18,0.0,0.0,-999,0.00,,---,0.00,VWS V14.01,2013-06-29 04:31:00,
2013-06-29 00:32:00,62.2,-99.9,-100.00,NNE,18,0.0,0.0,-999,0.00,,---,0.00,VWS V14.01,2013-06-29 04:32:00,
2013-06-29 00:36:00,61.9,-99.9,-100.00,NNE,18,0.0,0.0,-999,0.00,,---,0.00,VWS V14.01,2013-06-29 04:36:00,
2013-06-29 00:37:00,62.2,-99.9,-100.00,NNE,18,0.0,0.0,-999,0.00,,---,0.00,VWS V14.01,2013-06-29 04:37:00,
2013-06-29 00:41:00,61.6,-99.9,-100.00,NNE,18,0.0,0.0,-999,0.00,,---,0.00,VWS V14.01,2013-06-29 04:41:00,
2013-06-29 00:42:00,61.6,-99.9,-100.00,NNE,18,0.0,0.0,-999,0.00,,---,0.00,VWS V14.01,2013-06-29 04:42:00,
2013-06-29 00:46:00,62.5,-99.9,-100.00,NNE,18,0.0,0.0,-999,0.00,,---,0.00,VWS V14.01,2013-06-29 04:46:00,
2013-06-29 00:47:00,62.2,-99.9,-100.00,NNE,18,0.0,0.0,-999,0.00,,---,0.00,VWS V14.01,2013-06-29 04:47:00,
2013-06-29 00:51:00,62.5,-99.9,-100.00,NNE,18,0.0,0.0,-999,0.00,,---,0.00,VWS V14.01,2013-06-29 04:51:00,
2013-06-29 00:52:00,62.5,-99.9,-100.00,NNE,18,0.0,0.0,-999,0.00,,---,0.00,VWS V14.01,2013-06-29 04:52:00,
2013-06-29 00:57:00,62.5,-99.9,-100.00,NNE,18,0.0,0.0,-999,0.00,,---,0.00,VWS V14.01,2013-06-29 04:57:00,
2013-06-29 01:02:00,62.2,-99.9,-100.00,NNE,18,0.0,0.0,-999,0.00,,---,0.00,VWS V14.01,2013-06-29 05:02:00,
2013-06-29 01:07:00,62.5,-99.9,-100.00,NNE,18,0.0,0.0,-999,0.00,,---,0.00,VWS V14.01,2013-06-29 05:07:00,
2013-06-29 01:12:00,62.2,-99.9,-100.00,NNE,18,0.0,0.0,-999,0.00,,---,0.00,VWS V14.01,2013-06-29 05:12:00,
2013-06-29 01:13:00,61.9,-99.9,-100.00,NNE,18,0.0,0.0,-999,0.00,,---,0.00,VWS V14.01,2013-06-29 05:13:00,
2013-06-29 01:17:00,62.5,-99.9,-100.00,NNE,18,0.0,0.0,-999,0.00,,---,0.00,VWS V14.01,2013-06-29 05:17:00,
2013-06-29 01:18:00,62.2,-99.9,-100.00,NNE,18,0.0,0.0,-999,0.00,,---,0.00,VWS V14.01,2013-06-29 05:18:00,
2013-06-29 01:22:00,62.5,-99.9,-100.00,NNE,18,0.0,0.0,-999,0.00,,---,0.00,VWS V14.01,2013-06-29 05:22:00,
2013-06-29 01:23:00,62.5,-99.9,-100.00,NNE,18,0.0,0.0,-999,0.00,,---,0.00,VWS V14.01,2013-06-29 05:23:00,
2013-06-29 01:27:00,62.5,-99.9,-100.00,NNE,18,0.0,0.0,-999,0.00,,---,0.00,VWS V14.01,2013-06-29 05:27:00,
2013-06-29 01:28:00,62.5,-99.9,-100.00,NNE,18,0.0,0.0,-999,0.00,,---,0.00,VWS V14.01,2013-06-29 05:28:00,
2013-06-29 01:32:00,62.8,-99.9,-100.00,NNE,18,0.0,0.0,-999,0.00,,---,0.00,VWS V14.01,2013-06-29 05:32:00,
2013-06-29 01:33:00,63.0,-99.9,-100.00,NNE,18,0.0,0.0,-999,0.00,,---,0.00,VWS V14.01,2013-06-29 05:33:00,
2013-06-29 01:34:00,62.5,-99.9,-100.00,NNE,18,0.0,0.0,-999,0.00,,---,0.00,VWS V14.01,2013-06-29 05:34:00,
2013-06-29 01:37:00,63.0,-99.9,-100.00,NNE,18,0.0,0.0,-999,0.00,,---,0.00,VWS V14.01,2013-06-29 05:37:00,
2013-06-29 01:38:00,63.0,-99.9,-100.00,NNE,18,0.0,0.0,-999,0.00,,---,0.00,VWS V14.01,2013-06-29 05:38:00,
2013-06-29 01:39:00,62.5,-99.9,-100.00,NNE,18,0.0,0.0,-999,0.00,,---,0.00,VWS V14.01,2013-06-29 05:39:00,
2013-06-29 01:42:00,62.8,-99.9,-100.00,NNE,18,0.0,0.0,-999,0.00,,---,0.00,VWS V14.01,2013-06-29 05:42:00,
2013-06-29 01:43:00,62.8,-99.9,-100.00,NNE,18,0.0,0.0,-999,0.00,,---,0.00,VWS V14.01,2013-06-29 05:43:00,
2013-06-29 01:44:00,62.5,-99.9,-100.00,NNE,18,0.0,0.0,-999,0.00,,---,0.00,VWS V14.01,2013-06-29 05:44:00,
2013-06-29 01:48:00,62.2,-99.9,-100.00,NNE,18,0.0,0.0,-999,0.00,,---,0.00,VWS V14.01,2013-06-29 05:48:00,
2013-06-29 01:50:00,62.5,-99.9,-100.00,South,187,0.0,3.2,-999,0.00,,---,0.00,VWS V14.01,2013-06-29 05:50:00,
2013-06-29 01:53:00,62.5,-99.9,-100.00,South,187,0.0,0.0,-999,0.00,,---,0.00,VWS V14.01,2013-06-29 05:53:00,
2013-06-29 01:55:00,62.5,-99.9,-100.00,South,187,0.0,0.0,-999,0.00,,---,0.00,VWS V14.01,2013-06-29 05:55:00,
2013-06-29 01:58:00,62.2,-99.9,-100.00,South,187,0.0,0.0,-999,0.00,,---,0.00,VWS V14.01,2013-06-29 05:58:00,
2013-06-29 01:59:00,62.5,-99.9,-100.00,South,187,0.0,0.0,-999,0.00,,---,0.00,VWS V14.01,2013-06-29 05:59:00,
2013-06-29 02:00:00,62.2,-99.9,-100.00,South,177,2.9,2.9,-999,0.00,,---,0.00,VWS V14.01,2013-06-29 06:00:00,
2013-06-29 02:03:00,62.2,-99.9,-100.00,South,177,0.0,0.0,-999,0.00,,---,0.00,VWS V14.01,2013-06-29 06:03:00,
2013-06-29 02:04:00,61.9,-99.9,-100.00,South,177,0.0,0.0,-999,0.00,,---,0.00,VWS V14.01,2013-06-29 06:04:00,
2013-06-29 02:05:00,61.6,-99.9,-100.00,South,177,0.0,0.0,-999,0.00,,---,0.00,VWS V14.01,2013-06-29 06:05:00,
2013-06-29 02:08:00,61.9,-99.9,-100.00,WSW,248,0.0,3.5,-999,0.00,,---,0.00,VWS V14.01,2013-06-29 06:08:00,
2013-06-29 02:09:00,62.2,-99.9,-100.00,WSW,248,0.0,0.0,-999,0.00,,---,0.00,VWS V14.01,2013-06-29 06:09:00,
2013-06-29 02:10:00,61.9,-99.9,-100.00,WSW,248,0.0,0.0,-999,0.00,,---,0.00,VWS V14.01,2013-06-29 06:10:00,
2013-06-29 02:13:00,62.2,-99.9,-100.00,WSW,248,0.0,0.0,-999,0.00,,---,0.00,VWS V14.01,2013-06-29 06:13:00,
2013-06-29 02:14:00,61.6,-99.9,-100.00,WSW,248,0.0,0.0,-999,0.00,,---,0.00,VWS V14.01,2013-06-29 06:14:00,
2013-06-29 02:15:00,61.4,-99.9,-100.00,WSW,248,0.0,0.0,-999,0.00,,---,0.00,VWS V14.01,2013-06-29 06:15:00,
2013-06-29 02:18:00,61.9,-99.9,-100.00,SW,217,0.0,0.0,-999,0.00,,---,0.00,VWS V14.01,2013-06-29 06:18:00,
2013-06-29 02:19:00,61.9,-99.9,-100.00,SW,217,0.0,0.0,-999,0.00,,---,0.00,VWS V14.01,2013-06-29 06:19:00,
2013-06-29 02:20:00,61.6,-99.9,-100.00,SW,217,0.0,0.0,-999,0.00,,---,0.00,VWS V14.01,2013-06-29 06:20:00,
2013-06-29 02:24:00,61.6,-99.9,-100.00,SW,217,0.0,0.0,-999,0.00,,---,0.00,VWS V14.01,2013-06-29 06:24:00,
2013-06-29 02:25:00,62.2,-99.9,-100.00,SW,217,0.0,0.0,-999,0.00,,---,0.00,VWS V14.01,2013-06-29 06:25:00,
2013-06-29 02:29:00,61.9,-99.9,-100.00,SW,217,0.0,0.0,-999,0.00,,---,0.00,VWS V14.01,2013-06-29 06:29:00,
2013-06-29 02:30:00,61.9,-99.9,-100.00,SW,218,5.9,5.9,-999,0.00,,---,0.00,VWS V14.01,2013-06-29 06:30:00,
2013-06-29 02:34:00,62.2,-99.9,-100.00,SSW,202,0.0,0.0,-999,0.00,,---,0.00,VWS V14.01,2013-06-29 06:34:00,
2013-06-29 02:35:00,61.9,-99.9,-100.00,South,184,0.0,3.2,-999,0.00,,---,0.00,VWS V14.01,2013-06-29 06:35:00,
2013-06-29 02:39:00,61.9,-99.9,-100.00,SSW,195,0.0,6.2,-999,0.00,,---,0.00,VWS V14.01,2013-06-29 06:39:00,
2013-06-29 02:40:00,61.9,-99.9,-100.00,SSW,195,0.0,0.0,-999,0.00,,---,0.00,VWS V14.01,2013-06-29 06:40:00,
2013-06-29 02:41:00,62.2,-99.9,-100.00,SSW,195,0.0,0.0,-999,0.00,,---,0.00,VWS V14.01,2013-06-29 06:41:00,
2013-06-29 02:44:00,62.5,-99.9,-100.00,SSW,195,0.0,0.0,-999,0.00,,---,0.00,VWS V14.01,2013-06-29 06:44:00,
2013-06-29 02:45:00,61.9,-99.9,-100.00,SSW,195,0.0,0.0,-999,0.00,,---,0.00,VWS V14.01,2013-06-29 06:45:00,
2013-06-29 02:46:00,62.5,-99.9,-100.00,SSW,195,0.0,0.0,-999,0.00,,---,0.00,VWS V14.01,2013-06-29 06:46:00,
2013-06-29 02:49:00,61.6,-99.9,-100.00,South,170,0.0,0.0,-999,0.00,,---,0.00,VWS V14.01,2013-06-29 06:49:00,
2013-06-29 02:50:00,61.9,-99.9,-100.00,South,170,0.0,0.0,-999,0.00,,---,0.01,VWS V14.01,2013-06-29 06:50:00,
2013-06-29 02:51:00,61.9,-99.9,-100.00,South,170,0.0,0.0,-999,0.00,,---,0.01,VWS V14.01,2013-06-29 06:51:00,
2013-06-29 02:54:00,62.5,-99.9,-100.00,South,170,0.0,0.0,-999,0.00,,---,0.01,VWS V14.01,2013-06-29 06:54:00,
2013-06-29 02:55:00,61.9,-99.9,-100.00,South,170,0.0,0.0,-999,0.00,,---,0.01,VWS V14.01,2013-06-29 06:55:00,
2013-06-29 02:56:00,61.9,-99.9,-100.00,SSW,194,0.0,6.5,-999,0.00,,---,0.01,VWS V14.01,2013-06-29 06:56:00,
2013-06-29 02:59:00,62.2,-99.9,-100.00,SW,226,3.3,5.5,-999,0.00,,---,0.01,VWS V14.01,2013-06-29 06:59:00,
2013-06-29 03:00:00,62.2,-99.9,-100.00,SW,236,0.0,5.5,-999,0.00,,---,0.01,VWS V14.01,2013-06-29 07:00:00,
2013-06-29 03:01:00,62.2,-99.9,-100.00,SW,236,0.0,0.0,-999,0.00,,---,0.01,VWS V14.01,2013-06-29 07:01:00,
2013-06-29 03:04:00,62.2,-99.9,-100.00,SSW,210,0.0,0.0,-999,0.00,,---,0.01,VWS V14.01,2013-06-29 07:04:00,
2013-06-29 03:05:00,62.2,-99.9,-100.00,SSW,210,0.0,0.0,-999,0.00,,---,0.01,VWS V14.01,2013-06-29 07:05:00,
2013-06-29 03:06:00,62.2,-99.9,-100.00,SSW,210,0.0,0.0,-999,0.00,,---,0.01,VWS V14.01,2013-06-29 07:06:00,
2013-06-29 03:09:00,61.6,-99.9,-100.00,SSW,197,0.0,0.0,-999,0.00,,---,0.01,VWS V14.01,2013-06-29 07:09:00,
2013-06-29 03:10:00,62.2,-99.9,-100.00,SSW,197,0.0,0.0,-999,0.00,,---,0.01,VWS V14.01,2013-06-29 07:10:00,
2013-06-29 03:11:00,61.9,-99.9,-100.00,SSW,197,0.0,0.0,-999,0.00,,---,0.01,VWS V14.01,2013-06-29 07:11:00,
2013-06-29 03:14:00,62.5,-99.9,-100.00,SSW,193,4.7,4.7,-999,0.00,,---,0.01,VWS V14.01,2013-06-29 07:14:00,
2013-06-29 03:15:00,61.9,-99.9,-100.00,WSW,240,0.0,7.6,-999,0.00,,---,0.01,VWS V14.01,2013-06-29 07:15:00,
2013-06-29 03:16:00,61.9,-99.9,-100.00,SSW,200,5.6,7.3,-999,0.00,,---,0.01,VWS V14.01,2013-06-29 07:16:00,
2013-06-29 03:17:00,61.6,-99.9,-100.00,SSW,202,0.0,0.0,-999,0.00,,---,0.01,VWS V14.01,2013-06-29 07:17:00,
2013-06-29 03:19:00,61.6,-99.9,-100.00,SSW,210,0.0,0.0,-999,0.00,,---,0.01,VWS V14.01,2013-06-29 07:19:00,
2013-06-29 03:20:00,61.6,-99.9,-100.00,SW,232,0.0,3.3,-999,0.00,,---,0.01,VWS V14.01,2013-06-29 07:20:00,
2013-06-29 03:21:00,62.2,-99.9,-100.00,SW,232,0.0,3.3,-999,0.00,,---,0.01,VWS V14.01,2013-06-29 07:21:00,
2013-06-29 03:22:00,61.6,-99.9,-100.00,SW,221,3.5,4.9,-999,0.00,,---,0.01,VWS V14.01,2013-06-29 07:22:00,
2013-06-29 03:24:00,62.2,-99.9,-100.00,WSW,255,0.0,2.2,-999,0.00,,---,0.01,VWS V14.01,2013-06-29 07:24:00,
2013-06-29 03:25:00,61.9,-99.9,-100.00,WSW,255,0.0,0.0,-999,0.00,,---,0.01,VWS V14.01,2013-06-29 07:25:00,
2013-06-29 03:26:00,61.6,-99.9,-100.00,WSW,255,0.0,0.0,-999,0.00,,---,0.01,VWS V14.01,2013-06-29 07:26:00,
2013-06-29 03:27:00,61.6,-99.9,-100.00,WSW,255,0.0,0.0,-999,0.00,,---,0.01,VWS V14.01,2013-06-29 07:27:00,
2013-06-29 03:29:00,61.6,-99.9,-100.00,WSW,255,0.0,0.0,-999,0.00,,---,0.01,VWS V14.01,2013-06-29 07:29:00,
2013-06-29 03:31:00,61.9,-99.9,-100.00,WSW,255,0.0,0.0,-999,0.00,,---,0.01,VWS V14.01,2013-06-29 07:31:00,
2013-06-29 03:32:00,61.6,-99.9,-100.00,WSW,255,0.0,0.0,-999,0.00,,---,0.01,VWS V14.01,2013-06-29 07:32:00,
2013-06-29 03:35:00,61.6,-99.9,-100.00,WSW,255,0.0,2.6,-999,0.00,,---,0.01,VWS V14.01,2013-06-29 07:35:00,
2013-06-29 03:36:00,61.9,-99.9,-100.00,WSW,255,0.0,0.0,-999,0.00,,---,0.01,VWS V14.01,2013-06-29 07:36:00,
2013-06-29 03:37:00,61.6,-99.9,-100.00,SW,225,4.4,6.3,-999,0.00,,---,0.01,VWS V14.01,2013-06-29 07:37:00,
2013-06-29 03:39:00,61.6,-99.9,-100.00,SW,219,0.0,0.0,-999,0.00,,---,0.01,VWS V14.01,2013-06-29 07:39:00,
2013-06-29 03:41:00,61.6,-99.9,-100.00,SW,219,0.0,0.0,-999,0.00,,---,0.01,VWS V14.01,2013-06-29 07:41:00,
2013-06-29 03:42:00,61.6,-99.9,-100.00,SW,219,0.0,0.0,-999,0.00,,---,0.01,VWS V14.01,2013-06-29 07:42:00,
2013-06-29 03:45:00,61.6,-99.9,-100.00,SSW,195,4.5,4.5,-999,0.00,,---,0.01,VWS V14.01,2013-06-29 07:45:00,
2013-06-29 03:46:00,61.6,-99.9,-100.00,SW,228,0.0,0.0,-999,0.00,,---,0.01,VWS V14.01,2013-06-29 07:46:00,
2013-06-29 03:47:00,61.6,-99.9,-100.00,SW,228,0.0,0.0,-999,0.00,,---,0.01,VWS V14.01,2013-06-29 07:47:00,
2013-06-29 03:50:00,61.6,-99.9,-100.00,SW,228,0.0,0.0,-999,0.00,,---,0.01,VWS V14.01,2013-06-29 07:50:00,
2013-06-29 03:51:00,61.6,-99.9,-100.00,SW,228,0.0,0.0,-999,0.00,,---,0.01,VWS V14.01,2013-06-29 07:51:00,
2013-06-29 03:52:00,61.6,-99.9,-100.00,SW,228,0.0,0.0,-999,0.00,,---,0.01,VWS V14.01,2013-06-29 07:52:00,
2013-06-29 03:55:00,61.6,-99.9,-100.00,SW,228,0.0,0.0,-999,0.00,,---,0.01,VWS V14.01,2013-06-29 07:55:00,
2013-06-29 03:56:00,61.6,-99.9,-100.00,SW,228,0.0,0.0,-999,0.00,,---,0.01,VWS V14.01,2013-06-29 07:56:00,
2013-06-29 03:57:00,61.6,-99.9,-100.00,SSW,212,0.0,3.4,-999,0.00,,---,0.01,VWS V14.01,2013-06-29 07:57:00,
2013-06-29 03:58:00,61.6,-99.9,-100.00,SSW,212,0.0,3.4,-999,0.00,,---,0.01,VWS V14.01,2013-06-29 07:58:00,
2013-06-29 04:00:00,61.6,-99.9,-100.00,SW,236,4.3,4.3,-999,0.00,,---,0.01,VWS V14.01,2013-06-29 08:00:00,
2013-06-29 04:01:00,61.6,-99.9,-100.00,SW,221,0.0,0.0,-999,0.00,,---,0.01,VWS V14.01,2013-06-29 08:01:00,
2013-06-29 04:02:00,61.6,-99.9,-100.00,WSW,238,4.3,4.3,-999,0.00,,---,0.01,VWS V14.01,2013-06-29 08:02:00,
2013-06-29 04:03:00,61.4,-99.9,-100.00,WSW,238,2.9,4.8,-999,0.00,,---,0.01,VWS V14.01,2013-06-29 08:03:00,
2013-06-29 04:05:00,61.6,-99.9,-100.00,WSW,245,0.0,0.0,-999,0.00,,---,0.01,VWS V14.01,2013-06-29 08:05:00,
2013-06-29 04:07:00,61.6,-99.9,-100.00,SSW,197,0.0,0.0,-999,0.00,,---,0.01,VWS V14.01,2013-06-29 08:07:00,
2013-06-29 04:08:00,61.6,-99.9,-100.00,SSW,201,8.9,8.9,-999,0.00,,---,0.01,VWS V14.01,2013-06-29 08:08:00,
2013-06-29 04:10:00,61.6,-99.9,-100.00,SW,218,0.0,0.0,-999,0.00,,---,0.01,VWS V14.01,2013-06-29 08:10:00,
2013-06-29 04:12:00,61.4,-99.9,-100.00,SW,218,0.0,0.0,-999,0.00,,---,0.01,VWS V14.01,2013-06-29 08:12:00,
2013-06-29 04:13:00,61.6,-99.9,-100.00,SW,218,0.0,0.0,-999,0.00,,---,0.01,VWS V14.01,2013-06-29 08:13:00,
2013-06-29 04:15:00,61.6,-99.9,-100.00,SW,218,0.0,0.0,-999,0.00,,---,0.01,VWS V14.01,2013-06-29 08:15:00,
2013-06-29 04:17:00,61.6,-99.9,-100.00,SW,218,0.0,0.0,-999,0.00,,---,0.01,VWS V14.01,2013-06-29 08:17:00,
2013-06-29 04:18:00,61.6,-99.9,-100.00,WSW,248,5.2,5.2,-999,0.00,,---,0.01,VWS V14.01,2013-06-29 08:18:00,
2013-06-29 04:20:00,61.6,-99.9,-100.00,SSW,211,7.3,10.4,-999,0.00,,---,0.01,VWS V14.01,2013-06-29 08:20:00,
2013-06-29 04:22:00,61.6,-99.9,-100.00,SSW,195,0.0,0.0,-999,0.00,,---,0.01,VWS V14.01,2013-06-29 08:22:00,
2013-06-29 04:23:00,61.6,-99.9,-100.00,SSW,195,0.0,0.0,-999,0.00,,---,0.01,VWS V14.01,2013-06-29 08:23:00,
2013-06-29 04:25:00,61.6,-99.9,-100.00,SW,218,3.3,4.5,-999,0.00,,---,0.01,VWS V14.01,2013-06-29 08:25:00,
2013-06-29 04:27:00,61.6,-99.9,-100.00,SW,218,0.0,0.0,-999,0.00,,---,0.01,VWS V14.01,2013-06-29 08:27:00,
2013-06-29 04:28:00,61.6,-99.9,-100.00,SW,218,0.0,0.0,-999,0.00,,---,0.01,VWS V14.01,2013-06-29 08:28:00,
2013-06-29 04:29:00,61.6,-99.9,-100.00,SW,218,0.0,0.0,-999,0.00,,---,0.01,VWS V14.01,2013-06-29 08:29:00,
2013-06-29 04:30:00,61.6,-99.9,-100.00,SW,218,0.0,0.0,-999,0.00,,---,0.01,VWS V14.01,2013-06-29 08:30:00,
2013-06-29 04:33:00,61.6,-99.9,-100.00,SW,224,0.0,6.5,-999,0.00,,---,0.01,VWS V14.01,2013-06-29 08:33:00,
2013-06-29 04:34:00,61.6,-99.9,-100.00,WSW,243,4.4,4.4,-999,0.00,,---,0.01,VWS V14.01,2013-06-29 08:34:00,
2013-06-29 04:35:00,61.6,-99.9,-100.00,SSW,205,0.0,5.5,-999,0.00,,---,0.01,VWS V14.01,2013-06-29 08:35:00,
2013-06-29 04:38:00,61.6,-99.9,-100.00,SW,222,0.0,0.0,-999,0.00,,---,0.01,VWS V14.01,2013-06-29 08:38:00,
2013-06-29 04:39:00,61.6,-99.9,-100.00,SW,222,0.0,0.0,-999,0.00,,---,0.01,VWS V14.01,2013-06-29 08:39:00,
2013-06-29 04:41:00,61.6,-99.9,-100.00,SW,222,0.0,0.0,-999,0.00,,---,0.01,VWS V14.01,2013-06-29 08:41:00,
2013-06-29 04:43:00,62.2,-99.9,-100.00,SW,222,0.0,0.0,-999,0.00,,---,0.01,VWS V14.01,2013-06-29 08:43:00,
2013-06-29 04:44:00,61.6,-99.9,-100.00,SW,222,0.0,0.0,-999,0.00,,---,0.01,VWS V14.01,2013-06-29 08:44:00,
2013-06-29 04:45:00,61.4,-99.9,-100.00,SW,222,0.0,0.0,-999,0.00,,---,0.01,VWS V14.01,2013-06-29 08:45:00,
2013-06-29 04:46:00,61.6,-99.9,-100.00,SW,222,0.0,0.0,-999,0.00,,---,0.01,VWS V14.01,2013-06-29 08:46:00,
2013-06-29 04:48:00,61.6,-99.9,-100.00,SW,236,0.0,0.0,-999,0.00,,---,0.01,VWS V14.01,2013-06-29 08:48:00,
2013-06-29 04:49:00,61.6,-99.9,-100.00,SW,236,0.0,0.0,-999,0.00,,---,0.01,VWS V14.01,2013-06-29 08:49:00,
2013-06-29 04:50:00,61.6,-99.9,-100.00,South,186,3.1,7.1,-999,0.00,,---,0.01,VWS V14.01,2013-06-29 08:50:00,
2013-06-29 04:51:00,61.6,-99.9,-100.00,SW,215,0.0,7.3,-999,0.00,,---,0.01,VWS V14.01,2013-06-29 08:51:00,
2013-06-29 04:54:00,61.4,-99.9,-100.00,South,186,0.0,5.4,-999,0.00,,---,0.01,VWS V14.01,2013-06-29 08:54:00,
2013-06-29 04:55:00,61.6,-99.9,-100.00,South,186,0.0,0.0,-999,0.00,,---,0.01,VWS V14.01,2013-06-29 08:55:00,
2013-06-29 04:56:00,61.6,-99.9,-100.00,SSW,198,3.4,3.4,-999,0.00,,---,0.01,VWS V14.01,2013-06-29 08:56:00,
2013-06-29 04:59:00,61.9,-99.9,-100.00,South,184,0.0,2.7,-999,0.00,,---,0.01,VWS V14.01,2013-06-29 08:59:00,
2013-06-29 05:00:00,61.6,-99.9,-100.00,South,184,0.0,0.0,-999,0.00,,---,0.01,VWS V14.01,2013-06-29 09:00:00,
2013-06-29 05:01:00,61.6,-99.9,-100.00,South,181,3.2,3.2,-999,0.00,,---,0.01,VWS V14.01,2013-06-29 09:01:00,
2013-06-29 05:04:00,61.6,-99.9,-100.00,SW,233,5.0,5.0,-999,0.00,,---,0.01,VWS V14.01,2013-06-29 09:04:00,
2013-06-29 05:06:00,61.9,-99.9,-100.00,SSW,193,0.0,7.6,-999,0.00,,---,0.01,VWS V14.01,2013-06-29 09:06:00,
2013-06-29 05:09:00,61.9,-99.9,-100.00,WSW,240,0.0,5.2,-999,0.00,,---,0.01,VWS V14.01,2013-06-29 09:09:00,
2013-06-29 05:11:00,61.6,-99.9,-100.00,WSW,240,0.0,0.0,-999,0.00,,---,0.01,VWS V14.01,2013-06-29 09:11:00,
2013-06-29 05:14:00,61.6,-99.9,-100.00,WSW,240,0.0,0.0,-999,0.00,,---,0.01,VWS V14.01,2013-06-29 09:14:00,
2013-06-29 05:16:00,61.6,-99.9,-100.00,SSW,200,0.0,5.2,-999,0.00,,---,0.01,VWS V14.01,2013-06-29 09:16:00,
2013-06-29 05:19:00,61.9,-99.9,-100.00,SSW,197,0.0,0.0,-999,0.00,,---,0.01,VWS V14.01,2013-06-29 09:19:00,
2013-06-29 05:21:00,61.9,-99.9,-100.00,SSE,158,0.0,5.2,-999,0.00,,---,0.01,VWS V14.01,2013-06-29 09:21:00,
2013-06-29 05:24:00,62.2,-99.9,-100.00,SSE,158,0.0,0.0,-999,0.00,,---,0.01,VWS V14.01,2013-06-29 09:24:00,
2013-06-29 05:25:00,61.9,-99.9,-100.00,SSE,158,0.0,0.0,-999,0.00,,---,0.01,VWS V14.01,2013-06-29 09:25:00,
2013-06-29 05:26:00,61.9,-99.9,-100.00,SSE,158,0.0,0.0,-999,0.00,,---,0.01,VWS V14.01,2013-06-29 09:26:00,
2013-06-29 05:27:00,62.2,-99.9,-100.00,SSE,158,0.0,0.0,-999,0.00,,---,0.01,VWS V14.01,2013-06-29 09:27:00,
2013-06-29 05:29:00,61.6,-99.9,-100.00,SSE,158,0.0,0.0,-999,0.00,,---,0.01,VWS V14.01,2013-06-29 09:29:00,
2013-06-29 05:30:00,61.9,-99.9,-100.00,SSE,158,0.0,0.0,-999,0.00,,---,0.01,VWS V14.01,2013-06-29 09:30:00,
2013-06-29 05:31:00,61.9,-99.9,-100.00,SSE,158,0.0,0.0,-999,0.00,,---,0.01,VWS V14.01,2013-06-29 09:31:00,
2013-06-29 05:32:00,62.2,-99.9,-100.00,SSE,158,0.0,0.0,-999,0.00,,---,0.01,VWS V14.01,2013-06-29 09:32:00,
2013-06-29 05:35:00,62.2,-99.9,-100.00,SSE,158,0.0,0.0,-999,0.00,,---,0.01,VWS V14.01,2013-06-29 09:35:00,
2013-06-29 05:36:00,61.6,-99.9,-100.00,SSE,158,0.0,0.0,-999,0.00,,---,0.01,VWS V14.01,2013-06-29 09:36:00,
2013-06-29 05:37:00,61.6,-99.9,-100.00,SSE,158,0.0,0.0,-999,0.00,,---,0.01,VWS V14.01,2013-06-29 09:37:00,
2013-06-29 05:40:00,62.2,-99.9,-100.00,SSE,158,0.0,0.0,-999,0.00,,---,0.01,VWS V14.01,2013-06-29 09:40:00,
2013-06-29 05:41:00,61.9,-99.9,-100.00,SSW,198,4.8,8.3,-999,0.00,,---,0.01,VWS V14.01,2013-06-29 09:41:00,
2013-06-29 05:42:00,61.9,-99.9,-100.00,SSW,198,0.0,0.0,-999,0.00,,---,0.01,VWS V14.01,2013-06-29 09:42:00,
2013-06-29 05:45:00,61.9,-99.9,-100.00,SW,219,0.0,0.0,-999,0.00,,---,0.01,VWS V14.01,2013-06-29 09:45:00,
2013-06-29 05:47:00,62.2,-99.9,-100.00,South,174,0.0,5.0,-999,0.00,,---,0.01,VWS V14.01,2013-06-29 09:47:00,
2013-06-29 05:50:00,61.9,-99.9,-100.00,South,174,0.0,0.0,-999,0.00,,---,0.01,VWS V14.01,2013-06-29 09:50:00,
2013-06-29 05:51:00,61.9,-99.9,-100.00,South,174,0.0,0.0,-999,0.00,,---,0.01,VWS V14.01,2013-06-29 09:51:00,
2013-06-29 05:52:00,62.2,-99.9,-100.00,South,181,0.0,7.8,-999,0.00,,---,0.01,VWS V14.01,2013-06-29 09:52:00,
2013-06-29 05:53:00,62.5,-99.9,-100.00,South,181,0.0,0.0,-999,0.00,,---,0.01,VWS V14.01,2013-06-29 09:53:00,
2013-06-29 05:55:00,62.2,-99.9,-100.00,South,184,0.0,5.2,-999,0.00,,---,0.01,VWS V14.01,2013-06-29 09:55:00,
2013-06-29 05:56:00,62.5,-99.9,-100.00,South,184,0.0,0.0,-999,0.00,,---,0.01,VWS V14.01,2013-06-29 09:56:00,
2013-06-29 05:57:00,62.5,-99.9,-100.00,SSW,208,5.2,7.0,-999,0.00,,---,0.01,VWS V14.01,2013-06-29 09:57:00,
2013-06-29 05:58:00,62.5,-99.9,-100.00,SSW,195,3.4,9.9,-999,0.00,,---,0.01,VWS V14.01,2013-06-29 09:58:00,
2013-06-29 06:01:00,62.5,-99.9,-100.00,WSW,250,0.0,0.0,-999,0.00,,---,0.01,VWS V14.01,2013-06-29 10:01:00,
2013-06-29 06:02:00,62.2,-99.9,-100.00,WSW,250,0.0,0.0,-999,0.00,,---,0.01,VWS V14.01,2013-06-29 10:02:00,
2013-06-29 06:03:00,61.6,-99.9,-100.00,SW,215,10.3,10.3,-999,0.00,,---,0.01,VWS V14.01,2013-06-29 10:03:00,
2013-06-29 06:06:00,62.5,-99.9,-100.00,SSW,198,7.0,7.0,-999,0.00,,---,0.01,VWS V14.01,2013-06-29 10:06:00,
2013-06-29 06:07:00,62.5,-99.9,-100.00,SSW,207,0.0,0.0,-999,0.00,,---,0.01,VWS V14.01,2013-06-29 10:07:00,
2013-06-29 06:08:00,62.5,-99.9,-100.00,SSW,207,0.0,0.0,-999,0.00,,---,0.01,VWS V14.01,2013-06-29 10:08:00,
2013-06-29 06:11:00,62.5,-99.9,-100.00,SSW,202,0.0,4.7,-999,0.00,,---,0.01,VWS V14.01,2013-06-29 10:11:00,
2013-06-29 06:13:00,62.2,-99.9,-100.00,SSW,202,0.0,0.0,-999,0.00,,---,0.01,VWS V14.01,2013-06-29 10:13:00,
2013-06-29 06:16:00,62.5,-99.9,-100.00,SSW,212,0.0,4.3,-999,0.00,,---,0.01,VWS V14.01,2013-06-29 10:16:00,
2013-06-29 06:18:00,62.5,-99.9,-100.00,SW,226,0.0,6.2,-999,0.00,,---,0.01,VWS V14.01,2013-06-29 10:18:00,
2013-06-29 06:21:00,62.5,-99.9,-100.00,SW,226,0.0,0.0,-999,0.00,,---,0.01,VWS V14.01,2013-06-29 10:21:00,
2013-06-29 06:22:00,62.5,-99.9,-100.00,SW,226,0.0,0.0,-999,0.00,,---,0.01,VWS V14.01,2013-06-29 10:22:00,
2013-06-29 06:23:00,62.5,-99.9,-100.00,SSW,207,0.0,4.4,-999,0.00,,---,0.01,VWS V14.01,2013-06-29 10:23:00,
2013-06-29 06:26:00,62.5,-99.9,-100.00,SW,228,0.0,0.0,-999,0.00,,---,0.01,VWS V14.01,2013-06-29 10:26:00,
2013-06-29 06:27:00,62.5,-99.9,-100.00,SW,228,0.0,0.0,-999,0.00,,---,0.01,VWS V14.01,2013-06-29 10:27:00,
2013-06-29 06:28:00,62.2,-99.9,-100.00,SW,228,0.0,0.0,-999,0.00,,---,0.01,VWS V14.01,2013-06-29 10:28:00,
2013-06-29 06:31:00,62.2,-99.9,-100.00,SSW,212,0.0,8.4,-999,0.00,,---,0.01,VWS V14.01,2013-06-29 10:31:00,
2013-06-29 06:32:00,62.5,-99.9,-100.00,South,186,3.2,7.1,-999,0.00,,---,0.01,VWS V14.01,2013-06-29 10:32:00,
2013-06-29 06:33:00,62.5,-99.9,-100.00,South,186,0.0,0.0,-999,0.00,,---,0.01,VWS V14.01,2013-06-29 10:33:00,
2013-06-29 06:34:00,62.5,-99.9,-100.00,South,186,0.0,0.0,-999,0.00,,---,0.01,VWS V14.01,2013-06-29 10:34:00,
2013-06-29 06:36:00,62.5,-99.9,-100.00,South,186,0.0,0.0,-999,0.00,,---,0.01,VWS V14.01,2013-06-29 10:36:00,
2013-06-29 06:37:00,62.5,-99.9,-100.00,South,186,0.0,0.0,-999,0.00,,---,0.01,VWS V14.01,2013-06-29 10:37:00,
2013-06-29 06:38:00,62.2,-99.9,-100.00,South,186,0.0,0.0,-999,0.00,,---,0.01,VWS V14.01,2013-06-29 10:38:00,
2013-06-29 06:39:00,62.8,-99.9,-100.00,South,186,0.0,0.0,-999,0.00,,---,0.01,VWS V14.01,2013-06-29 10:39:00,
2013-06-29 06:41:00,62.2,-99.9,-100.00,SSW,193,4.7,8.0,-999,0.00,,---,0.01,VWS V14.01,2013-06-29 10:41:00,
2013-06-29 06:42:00,61.9,-99.9,-100.00,SW,215,0.0,4.7,-999,0.00,,---,0.01,VWS V14.01,2013-06-29 10:42:00,
2013-06-29 06:43:00,62.5,-99.9,-100.00,SW,215,0.0,0.0,-999,0.00,,---,0.01,VWS V14.01,2013-06-29 10:43:00,
2013-06-29 06:44:00,62.5,-99.9,-100.00,SW,215,0.0,0.0,-999,0.00,,---,0.01,VWS V14.01,2013-06-29 10:44:00,
2013-06-29 06:46:00,62.5,-99.9,-100.00,SW,215,0.0,0.0,-999,0.00,,---,0.01,VWS V14.01,2013-06-29 10:46:00,
2013-06-29 06:47:00,62.5,-99.9,-100.00,SW,215,0.0,0.0,-999,0.00,,---,0.01,VWS V14.01,2013-06-29 10:47:00,
2013-06-29 06:48:00,62.5,-99.9,-100.00,SW,215,0.0,0.0,-999,0.00,,---,0.01,VWS V14.01,2013-06-29 10:48:00,
2013-06-29 06:49:00,62.5,-99.9,-100.00,SW,215,0.0,0.0,-999,0.00,,---,0.01,VWS V14.01,2013-06-29 10:49:00,
2013-06-29 06:52:00,62.5,-99.9,-100.00,SW,219,0.0,8.0,-999,0.00,,---,0.01,VWS V14.01,2013-06-29 10:52:00,
2013-06-29 06:53:00,62.5,-99.9,-100.00,SSW,200,0.0,0.0,-999,0.00,,---,0.01,VWS V14.01,2013-06-29 10:53:00,
2013-06-29 06:54:00,62.5,-99.9,-100.00,SSW,200,0.0,0.0,-999,0.00,,---,0.01,VWS V14.01,2013-06-29 10:54:00,
2013-06-29 06:57:00,62.5,-99.9,-100.00,SW,224,5.5,5.5,-999,0.00,,---,0.01,VWS V14.01,2013-06-29 10:57:00,
2013-06-29 06:58:00,62.5,-99.9,-100.00,SSW,211,0.0,5.5,-999,0.00,,---,0.01,VWS V14.01,2013-06-29 10:58:00,
2013-06-29 06:59:00,62.5,-99.9,-100.00,SSW,211,0.0,0.0,-999,0.00,,---,0.01,VWS V14.01,2013-06-29 10:59:00,
2013-06-29 07:02:00,62.5,-99.9,-100.00,SSW,205,0.0,3.2,-999,0.00,,---,0.01,VWS V14.01,2013-06-29 11:02:00,
2013-06-29 07:03:00,62.5,-99.9,-100.00,SSW,205,0.0,0.0,-999,0.00,,---,0.01,VWS V14.01,2013-06-29 11:03:00,
2013-06-29 07:04:00,62.5,-99.9,-100.00,SSW,205,0.0,0.0,-999,0.00,,---,0.01,VWS V14.01,2013-06-29 11:04:00,
2013-06-29 07:07:00,62.2,-99.9,-100.00,SSW,205,0.0,2.9,-999,0.00,,---,0.01,VWS V14.01,2013-06-29 11:07:00,
2013-06-29 07:08:00,62.5,-99.9,-100.00,SSW,205,0.0,0.0,-999,0.00,,---,0.01,VWS V14.01,2013-06-29 11:08:00,
2013-06-29 07:09:00,62.5,-99.9,-100.00,SSW,205,0.0,0.0,-999,0.00,,---,0.01,VWS V14.01,2013-06-29 11:09:00,
2013-06-29 07:12:00,62.5,-99.9,-100.00,SSW,205,0.0,0.0,-999,0.00,,---,0.01,VWS V14.01,2013-06-29 11:12:00,
2013-06-29 07:13:00,62.5,-99.9,-100.00,SSW,205,0.0,0.0,-999,0.00,,---,0.01,VWS V14.01,2013-06-29 11:13:00,
2013-06-29 07:14:00,62.2,-99.9,-100.00,SSW,205,0.0,0.0,-999,0.00,,---,0.01,VWS V14.01,2013-06-29 11:14:00,
2013-06-29 07:17:00,62.5,-99.9,-100.00,SW,225,0.0,0.0,-999,0.00,,---,0.01,VWS V14.01,2013-06-29 11:17:00,
2013-06-29 07:18:00,62.5,-99.9,-100.00,SW,225,0.0,0.0,-999,0.00,,---,0.01,VWS V14.01,2013-06-29 11:18:00,
2013-06-29 07:19:00,62.5,-99.9,-100.00,SW,225,0.0,0.0,-999,0.00,,---,0.01,VWS V14.01,2013-06-29 11:19:00,
2013-06-29 07:22:00,62.2,-99.9,-100.00,SSW,212,0.0,7.5,-999,0.00,,---,0.01,VWS V14.01,2013-06-29 11:22:00,
2013-06-29 07:23:00,62.5,-99.9,-100.00,SSW,212,0.0,0.0,-999,0.00,,---,0.01,VWS V14.01,2013-06-29 11:23:00,
2013-06-29 07:24:00,62.5,-99.9,-100.00,SSW,212,0.0,0.0,-999,0.00,,---,0.01,VWS V14.01,2013-06-29 11:24:00,
2013-06-29 07:25:00,62.5,-99.9,-100.00,SSW,212,0.0,0.0,-999,0.00,,---,0.01,VWS V14.01,2013-06-29 11:25:00,
2013-06-29 07:27:00,62.2,-99.9,-100.00,South,180,0.0,3.5,-999,0.00,,---,0.01,VWS V14.01,2013-06-29 11:27:00,
2013-06-29 07:28:00,62.5,-99.9,-100.00,South,180,0.0,0.0,-999,0.00,,---,0.01,VWS V14.01,2013-06-29 11:28:00,
2013-06-29 07:29:00,62.5,-99.9,-100.00,South,180,0.0,0.0,-999,0.00,,---,0.01,VWS V14.01,2013-06-29 11:29:00,
2013-06-29 07:30:00,62.5,-99.9,-100.00,SSW,212,0.0,3.4,-999,0.00,,---,0.01,VWS V14.01,2013-06-29 11:30:00,
2013-06-29 07:32:00,62.5,-99.9,-100.00,SSW,204,0.0,0.0,-999,0.00,,---,0.01,VWS V14.01,2013-06-29 11:32:00,
2013-06-29 07:33:00,62.5,-99.9,-100.00,SW,218,3.4,4.6,-999,0.00,,---,0.01,VWS V14.01,2013-06-29 11:33:00,
2013-06-29 07:34:00,62.5,-99.9,-100.00,WSW,257,0.0,4.6,-999,0.00,,---,0.01,VWS V14.01,2013-06-29 11:34:00,
2013-06-29 07:35:00,62.5,-99.9,-100.00,SSW,201,0.0,7.3,-999,0.00,,---,0.01,VWS V14.01,2013-06-29 11:35:00,
2013-06-29 07:37:00,62.8,-99.9,-100.00,SSW,201,0.0,0.0,-999,0.00,,---,0.01,VWS V14.01,2013-06-29 11:37:00,
2013-06-29 07:38:00,62.5,-99.9,-100.00,SSW,201,0.0,0.0,-999,0.00,,---,0.01,VWS V14.01,2013-06-29 11:38:00,
2013-06-29 07:39:00,62.5,-99.9,-100.00,SSW,201,0.0,0.0,-999,0.00,,---,0.01,VWS V14.01,2013-06-29 11:39:00,
2013-06-29 07:40:00,62.5,-99.9,-100.00,SSW,201,0.0,0.0,-999,0.00,,---,0.01,VWS V14.01,2013-06-29 11:40:00,
2013-06-29 07:43:00,62.5,-99.9,-100.00,SSW,201,0.0,0.0,-999,0.00,,---,0.01,VWS V14.01,2013-06-29 11:43:00,
2013-06-29 07:44:00,62.5,-99.9,-100.00,SSW,201,0.0,0.0,-999,0.00,,---,0.01,VWS V14.01,2013-06-29 11:44:00,
2013-06-29 07:45:00,62.5,-99.9,-100.00,SSW,201,0.0,0.0,-999,0.00,,---,0.01,VWS V14.01,2013-06-29 11:45:00,
2013-06-29 07:48:00,62.5,-99.9,-100.00,SSW,201,0.0,0.0,-999,0.00,,---,0.01,VWS V14.01,2013-06-29 11:48:00,
2013-06-29 07:49:00,62.5,-99.9,-100.00,SSW,201,0.0,0.0,-999,0.00,,---,0.01,VWS V14.01,2013-06-29 11:49:00,
2013-06-29 07:50:00,62.5,-99.9,-100.00,SSW,201,0.0,0.0,-999,0.00,,---,0.01,VWS V14.01,2013-06-29 11:50:00,
2013-06-29 07:53:00,62.5,-99.9,-100.00,SSW,201,0.0,0.0,-999,0.00,,---,0.01,VWS V14.01,2013-06-29 11:53:00,
2013-06-29 07:54:00,62.8,-99.9,-100.00,SSW,201,0.0,0.0,-999,0.00,,---,0.01,VWS V14.01,2013-06-29 11:54:00,
2013-06-29 07:55:00,62.5,-99.9,-100.00,SSW,201,0.0,0.0,-999,0.00,,---,0.01,VWS V14.01,2013-06-29 11:55:00,
2013-06-29 07:58:00,62.8,-99.9,-100.00,SSW,201,0.0,0.0,-999,0.00,,---,0.01,VWS V14.01,2013-06-29 11:58:00,
2013-06-29 07:59:00,62.5,-99.9,-100.00,SSW,201,0.0,0.0,-999,0.00,,---,0.01,VWS V14.01,2013-06-29 11:59:00,
2013-06-29 08:00:00,62.8,-99.9,-100.00,SSW,201,0.0,0.0,-999,0.00,,---,0.01,VWS V14.01,2013-06-29 12:00:00,
2013-06-29 08:03:00,62.5,-99.9,-100.00,SSW,200,1.4,3.5,-999,0.00,,---,0.01,VWS V14.01,2013-06-29 12:03:00,
2013-06-29 08:04:00,62.8,-99.9,-100.00,SSW,200,0.0,0.0,-999,0.00,,---,0.01,VWS V14.01,2013-06-29 12:04:00,
2013-06-29 08:05:00,62.8,-99.9,-100.00,SSW,200,0.0,0.0,-999,0.00,,---,0.01,VWS V14.01,2013-06-29 12:05:00,
2013-06-29 08:08:00,63.0,-99.9,-100.00,SSE,163,0.0,0.0,-999,0.00,,---,0.01,VWS V14.01,2013-06-29 12:08:00,
2013-06-29 08:09:00,63.3,-99.9,-100.00,SSE,163,0.0,0.0,-999,0.00,,---,0.01,VWS V14.01,2013-06-29 12:09:00,
2013-06-29 08:10:00,63.0,-99.9,-100.00,SSE,163,0.0,0.0,-999,0.00,,---,0.01,VWS V14.01,2013-06-29 12:10:00,
2013-06-29 08:14:00,64.2,-99.9,-100.00,SSW,197,0.0,0.0,-999,0.00,,---,0.01,VWS V14.01,2013-06-29 12:14:00,
2013-06-29 08:15:00,64.2,-99.9,-100.00,SW,214,5.7,6.0,-999,0.00,,---,0.01,VWS V14.01,2013-06-29 12:15:00,
2013-06-29 08:16:00,64.8,-99.9,-100.00,WSW,242,0.0,4.2,-999,0.00,,---,0.01,VWS V14.01,2013-06-29 12:16:00,
2013-06-29 08:19:00,64.2,-99.9,-100.00,SW,214,3.5,6.3,-999,0.00,,---,0.01,VWS V14.01,2013-06-29 12:19:00,
2013-06-29 08:20:00,64.2,-99.9,-100.00,SW,217,3.5,4.7,-999,0.00,,---,0.01,VWS V14.01,2013-06-29 12:20:00,
2013-06-29 08:21:00,64.8,-99.9,-100.00,SW,219,0.0,5.2,-999,0.00,,---,0.01,VWS V14.01,2013-06-29 12:21:00,
2013-06-29 08:24:00,64.4,-99.9,-100.00,WSW,252,0.0,2.4,-999,0.00,,---,0.01,VWS V14.01,2013-06-29 12:24:00,
2013-06-29 08:25:00,65.0,-99.9,-100.00,WSW,252,0.0,0.0,-999,0.00,,---,0.01,VWS V14.01,2013-06-29 12:25:00,
2013-06-29 08:26:00,64.2,-99.9,-100.00,SW,222,4.2,6.1,-999,0.00,,---,0.01,VWS V14.01,2013-06-29 12:26:00,
2013-06-29 08:29:00,64.2,-99.9,-100.00,SW,226,0.0,0.0,-999,2.55,,---,0.01,VWS V14.01,2013-06-29 12:29:00,
2013-06-29 08:30:00,66.3,-99.9,-100.00,SW,225,2.8,3.2,-999,2.55,,---,0.00,VWS V14.01,2013-06-29 12:30:00,
2013-06-29 08:31:00,65.0,-99.9,-100.00,WSW,242,0.0,6.2,-999,2.55,,---,0.01,VWS V14.01,2013-06-29 12:31:00,
2013-06-29 08:34:00,64.8,-99.9,-100.00,SW,231,0.0,0.0,-999,2.55,,---,0.01,VWS V14.01,2013-06-29 12:34:00,
2013-06-29 08:35:00,64.8,-99.9,-100.00,SW,231,0.0,0.0,-999,2.55,,---,0.01,VWS V14.01,2013-06-29 12:35:00,
2013-06-29 08:36:00,65.0,-99.9,-100.00,SW,231,0.0,0.0,-999,2.55,,---,0.01,VWS V14.01,2013-06-29 12:36:00,
2013-06-29 08:39:00,65.0,-99.9,-100.00,SW,231,0.0,0.0,-999,2.55,,---,0.01,VWS V14.01,2013-06-29 12:39:00,
2013-06-29 08:40:00,64.4,-99.9,-100.00,SW,231,0.0,0.0,-999,2.55,,---,0.01,VWS V14.01,2013-06-29 12:40:00,
2013-06-29 08:41:00,64.2,-99.9,-100.00,SSW,208,6.5,6.5,-999,0.00,,---,0.01,VWS V14.01,2013-06-29 12:41:00,
2013-06-29 08:42:00,64.2,-99.9,-100.00,SSW,208,6.5,6.5,-999,0.00,,---,0.01,VWS V14.01,2013-06-29 12:42:00,
2013-06-29 08:44:00,50.6,-99.9,-100.00,SSW,204,0.0,6.5,-999,0.00,,---,0.03,VWS V14.01,2013-06-29 12:44:00,
2013-06-29 08:45:00,65.0,-99.9,-100.00,SSW,204,0.0,0.0,-999,0.00,,---,0.03,VWS V14.01,2013-06-29 12:45:00,
2013-06-29 08:46:00,64.8,-99.9,-100.00,SSW,205,0.0,4.2,-999,0.00,,---,0.03,VWS V14.01,2013-06-29 12:46:00,
2013-06-29 08:47:00,65.3,-99.9,-100.00,SSW,205,0.0,0.0,-999,0.00,,---,0.03,VWS V14.01,2013-06-29 12:47:00,
2013-06-29 08:49:00,64.8,-99.9,-100.00,SSW,195,0.0,0.0,-999,0.00,,---,0.03,VWS V14.01,2013-06-29 12:49:00,
2013-06-29 08:50:00,65.3,-99.9,-100.00,SSW,195,0.0,0.0,-999,0.00,,---,0.03,VWS V14.01,2013-06-29 12:50:00,
2013-06-29 08:54:00,65.0,-99.9,-100.00,SSW,212,0.0,0.0,-999,0.00,,---,0.05,VWS V14.01,2013-06-29 12:54:00,
2013-06-29 08:55:00,65.0,-99.9,-100.00,SSW,212,0.0,0.0,-999,0.00,,---,0.05,VWS V14.01,2013-06-29 12:55:00,
2013-06-29 08:59:00,65.9,-99.9,-100.00,SSW,211,0.0,0.0,-999,1.51,,---,0.05,VWS V14.01,2013-06-29 12:59:00,
2013-06-29 09:00:00,65.9,-99.9,-100.00,SSW,211,0.0,0.0,-999,1.51,,---,0.05,VWS V14.01,2013-06-29 13:00:00,
2013-06-29 09:05:00,65.9,-99.9,-100.00,South,177,0.0,0.0,-999,0.00,,---,0.05,VWS V14.01,2013-06-29 13:05:00,
2013-06-29 09:10:00,65.9,-99.9,-100.00,South,177,0.0,0.0,-999,0.00,,---,0.05,VWS V14.01,2013-06-29 13:10:00,
2013-06-29 09:15:00,67.7,-99.9,-100.00,South,177,0.0,0.0,-999,0.01,,---,0.05,VWS V14.01,2013-06-29 13:15:00,
2013-06-29 09:16:00,68.0,-99.9,-100.00,South,177,0.0,0.0,-999,0.01,,---,0.05,VWS V14.01,2013-06-29 13:16:00,
2013-06-29 09:20:00,66.8,-99.9,-100.00,South,177,0.0,0.0,-999,0.01,,---,0.05,VWS V14.01,2013-06-29 13:20:00,
2013-06-29 09:21:00,66.8,-99.9,-100.00,South,177,0.0,0.0,-999,0.01,,---,0.05,VWS V14.01,2013-06-29 13:21:00,
2013-06-29 09:25:00,66.4,-99.9,-100.00,South,177,0.0,0.0,-999,0.01,,---,0.05,VWS V14.01,2013-06-29 13:25:00,
2013-06-29 09:26:00,66.4,-99.9,-100.00,South,177,0.0,0.0,-999,0.01,,---,0.05,VWS V14.01,2013-06-29 13:26:00,
2013-06-29 09:30:00,66.8,-99.9,-100.00,South,177,0.0,0.0,-999,0.01,,---,0.05,VWS V14.01,2013-06-29 13:30:00,
2013-06-29 09:31:00,66.8,-99.9,-100.00,South,177,0.0,0.0,-999,0.01,,---,0.05,VWS V14.01,2013-06-29 13:31:00,
2013-06-29 09:35:00,68.2,-99.9,-100.00,South,172,5.9,5.9,-999,0.00,,---,0.05,VWS V14.01,2013-06-29 13:35:00,
2013-06-29 09:36:00,67.7,-99.9,-100.00,SSW,193,5.7,5.9,-999,0.00,,---,0.05,VWS V14.01,2013-06-29 13:36:00,
2013-06-29 09:40:00,68.0,-99.9,-100.00,SW,236,3.5,4.8,-999,0.00,,---,0.05,VWS V14.01,2013-06-29 13:40:00,
2013-06-29 09:41:00,68.0,-99.9,-100.00,SW,229,3.1,4.8,-999,0.00,,---,0.05,VWS V14.01,2013-06-29 13:41:00,
2013-06-29 09:42:00,67.9,-99.9,-100.00,WSW,239,4.8,4.8,-999,0.00,,---,0.05,VWS V14.01,2013-06-29 13:42:00,
2013-06-29 09:46:00,68.4,-99.9,-100.00,WSW,239,0.0,2.9,-999,0.01,,---,0.05,VWS V14.01,2013-06-29 13:46:00,
2013-06-29 09:47:00,69.5,-99.9,-100.00,WSW,239,0.0,0.0,-999,0.01,,---,0.05,VWS V14.01,2013-06-29 13:47:00,
2013-06-29 09:51:00,68.7,-99.9,-100.00,SSW,205,6.2,7.0,-999,0.01,,---,0.05,VWS V14.01,2013-06-29 13:51:00,
2013-06-29 09:52:00,69.0,-99.9,-100.00,SW,226,0.0,0.0,-999,0.01,,---,0.05,VWS V14.01,2013-06-29 13:52:00,
2013-06-29 09:56:00,69.5,-99.9,-100.00,SW,217,4.7,6.8,-999,0.01,,---,0.05,VWS V14.01,2013-06-29 13:56:00,
2013-06-29 09:57:00,69.9,-99.9,-100.00,SW,236,0.0,3.3,-999,0.00,,---,0.05,VWS V14.01,2013-06-29 13:57:00,
2013-06-29 10:01:00,70.8,-99.9,-100.00,SW,215,0.0,0.0,-999,0.00,,---,0.05,VWS V14.01,2013-06-29 14:01:00,
2013-06-29 10:02:00,70.8,-99.9,-100.00,SSW,208,1.7,1.7,-999,0.00,,---,0.05,VWS V14.01,2013-06-29 14:02:00,
2013-06-29 10:06:00,71.7,-99.9,-100.00,SW,215,0.0,0.0,-999,0.01,,---,0.05,VWS V14.01,2013-06-29 14:06:00,
2013-06-29 10:07:00,70.8,-99.9,-100.00,SW,215,0.0,0.0,-999,0.01,,---,0.05,VWS V14.01,2013-06-29 14:07:00,
2013-06-29 10:11:00,70.8,-99.9,-100.00,SW,226,0.0,0.0,-999,0.00,,---,0.05,VWS V14.01,2013-06-29 14:11:00,
2013-06-29 10:12:00,71.1,-99.9,-100.00,SW,226,0.0,0.0,-999,0.00,,---,0.05,VWS V14.01,2013-06-29 14:12:00,
2013-06-29 10:16:00,70.8,-99.9,-100.00,SW,224,2.9,2.9,-999,0.00,,---,0.05,VWS V14.01,2013-06-29 14:16:00,
2013-06-29 10:17:00,71.7,-99.9,-100.00,SW,224,0.0,0.0,-999,0.00,,---,0.05,VWS V14.01,2013-06-29 14:17:00,
2013-06-29 10:21:00,70.8,-99.9,-100.00,WSW,246,5.0,5.0,-999,0.00,,---,0.05,VWS V14.01,2013-06-29 14:21:00,
2013-06-29 10:22:00,70.8,-99.9,-100.00,SW,219,2.1,3.2,-999,0.00,,---,0.05,VWS V14.01,2013-06-29 14:22:00,
2013-06-29 10:23:00,70.8,-99.9,-100.00,South,177,5.1,5.1,-999,0.00,,---,0.05,VWS V14.01,2013-06-29 14:23:00,
2013-06-29 10:26:00,72.0,-99.9,-100.00,SW,222,0.0,0.0,-999,0.00,,---,0.05,VWS V14.01,2013-06-29 14:26:00,
2013-06-29 10:27:00,72.0,-99.9,-100.00,SW,222,0.0,0.0,-999,0.00,,---,0.05,VWS V14.01,2013-06-29 14:27:00,
2013-06-29 10:28:00,71.7,-99.9,-100.00,SW,222,0.0,0.0,-999,0.00,,---,0.05,VWS V14.01,2013-06-29 14:28:00,
2013-06-29 10:31:00,72.7,-99.9,-100.00,South,169,0.0,0.0,-999,0.00,,---,0.05,VWS V14.01,2013-06-29 14:31:00,
2013-06-29 10:32:00,72.7,-99.9,-100.00,South,169,0.0,0.0,-999,0.00,,---,0.05,VWS V14.01,2013-06-29 14:32:00,
2013-06-29 10:33:00,71.7,-99.9,-100.00,SW,218,2.6,4.8,-999,0.00,,---,0.05,VWS V14.01,2013-06-29 14:33:00,
2013-06-29 10:36:00,70.8,-99.9,-100.00,SSW,208,3.4,5.7,-999,0.00,,---,0.05,VWS V14.01,2013-06-29 14:36:00,
2013-06-29 10:37:00,71.4,-99.9,-100.00,SW,236,0.0,2.4,-999,0.00,,---,0.05,VWS V14.01,2013-06-29 14:37:00,
2013-06-29 10:38:00,71.7,-99.9,-100.00,SW,236,3.4,3.4,-999,0.00,,---,0.05,VWS V14.01,2013-06-29 14:38:00,
2013-06-29 10:41:00,72.0,-99.9,-100.00,SW,219,2.9,3.4,-999,0.00,,---,0.05,VWS V14.01,2013-06-29 14:41:00,
2013-06-29 10:42:00,72.3,-99.9,-100.00,SW,222,0.0,2.9,-999,0.00,,---,0.05,VWS V14.01,2013-06-29 14:42:00,
2013-06-29 10:43:00,72.3,-99.9,-100.00,SW,222,0.0,2.9,-999,0.00,,---,0.05,VWS V14.01,2013-06-29 14:43:00,
2013-06-29 10:46:00,72.7,-99.9,-100.00,SW,222,0.0,0.0,-999,0.00,,---,0.05,VWS V14.01,2013-06-29 14:46:00,
2013-06-29 10:47:00,73.0,-99.9,-100.00,SW,222,0.0,0.0,-999,0.00,,---,0.05,VWS V14.01,2013-06-29 14:47:00,
2013-06-29 10:48:00,73.3,-99.9,-100.00,SW,222,0.0,0.0,-999,0.00,,---,0.05,VWS V14.01,2013-06-29 14:48:00,
2013-06-29 10:51:00,76.4,-99.9,-100.00,SW,222,0.0,0.0,-999,0.00,,---,0.05,VWS V14.01,2013-06-29 14:51:00,
2013-06-29 10:52:00,77.4,-99.9,-100.00,SW,222,0.0,0.0,-999,0.00,,---,0.05,VWS V14.01,2013-06-29 14:52:00,
2013-06-29 10:53:00,77.8,-99.9,-100.00,SW,222,0.0,0.0,-999,0.00,,---,0.05,VWS V14.01,2013-06-29 14:53:00,
2013-06-29 10:57:00,80.4,-99.9,-100.00,SW,218,0.0,3.4,-999,0.00,,---,0.05,VWS V14.01,2013-06-29 14:57:00,
2013-06-29 10:58:00,80.5,-99.9,-100.00,WSW,242,5.0,6.7,-999,0.00,,---,0.05,VWS V14.01,2013-06-29 14:58:00,
2013-06-29 11:02:00,80.4,-99.9,-100.00,North,3,0.0,0.0,-999,0.00,,---,0.05,VWS V14.01,2013-06-29 15:02:00,
2013-06-29 11:03:00,82.0,-99.9,-100.00,North,3,0.0,0.0,-999,0.00,,---,0.05,VWS V14.01,2013-06-29 15:03:00,
2013-06-29 11:07:00,82.4,-99.9,-100.00,NNW,342,0.0,0.0,-999,0.00,,---,0.05,VWS V14.01,2013-06-29 15:07:00,
2013-06-29 11:08:00,81.4,-99.9,-100.00,NNW,342,0.0,0.0,-999,0.00,,---,0.05,VWS V14.01,2013-06-29 15:08:00,
2013-06-29 11:12:00,85.5,-99.9,-100.00,NNW,342,0.0,0.0,-999,0.00,,---,0.05,VWS V14.01,2013-06-29 15:12:00,
2013-06-29 11:13:00,85.5,-99.9,-100.00,NNW,340,5.1,5.5,-999,0.00,,---,0.05,VWS V14.01,2013-06-29 15:13:00,
2013-06-29 11:17:00,78.4,-99.9,-100.00,SW,221,3.0,3.5,-999,0.00,,---,0.05,VWS V14.01,2013-06-29 15:17:00,
2013-06-29 11:18:00,78.8,-99.9,-100.00,SW,221,0.0,0.0,-999,0.00,,---,0.05,VWS V14.01,2013-06-29 15:18:00,
2013-06-29 11:19:00,80.4,-99.9,-100.00,SW,221,0.0,0.0,-999,0.00,,---,0.05,VWS V14.01,2013-06-29 15:19:00,
2013-06-29 11:22:00,76.4,-99.9,-100.00,SW,222,4.7,4.7,-999,0.00,,---,0.05,VWS V14.01,2013-06-29 15:22:00,
2013-06-29 11:23:00,75.2,-99.9,-100.00,SSW,198,5.0,5.2,-999,0.00,,---,0.05,VWS V14.01,2013-06-29 15:23:00,
2013-06-29 11:24:00,74.2,-99.9,-100.00,SSW,195,3.3,4.7,-999,0.00,,---,0.05,VWS V14.01,2013-06-29 15:24:00,
2013-06-29 11:27:00,78.4,-99.9,-100.00,South,191,0.0,0.0,-999,0.00,,---,0.05,VWS V14.01,2013-06-29 15:27:00,
2013-06-29 11:28:00,78.1,-99.9,-100.00,South,179,3.4,3.4,-999,0.00,,---,0.05,VWS V14.01,2013-06-29 15:28:00,
2013-06-29 11:29:00,76.1,-99.9,-100.00,South,172,0.0,3.4,-999,0.00,,---,0.05,VWS V14.01,2013-06-29 15:29:00,
2013-06-29 11:32:00,77.4,-99.9,-100.00,South,172,0.0,0.0,-999,0.00,,---,0.05,VWS V14.01,2013-06-29 15:32:00,
2013-06-29 11:33:00,79.4,-99.9,-100.00,South,172,0.0,0.0,-999,0.00,,---,0.05,VWS V14.01,2013-06-29 15:33:00,
2013-06-29 11:34:00,79.4,-99.9,-100.00,South,172,0.0,0.0,-999,0.00,,---,0.05,VWS V14.01,2013-06-29 15:34:00,
2013-06-29 11:37:00,81.4,-99.9,-100.00,WSW,239,0.0,2.8,-999,0.00,,---,0.05,VWS V14.01,2013-06-29 15:37:00,
2013-06-29 11:38:00,81.4,-99.9,-100.00,WSW,239,0.0,0.0,-999,0.00,,---,0.05,VWS V14.01,2013-06-29 15:38:00,
2013-06-29 11:39:00,81.4,-99.9,-100.00,WSW,239,0.0,0.0,-999,0.00,,---,0.05,VWS V14.01,2013-06-29 15:39:00,
2013-06-29 11:43:00,81.4,-99.9,-100.00,SSW,200,0.0,0.0,-999,0.00,,---,0.05,VWS V14.01,2013-06-29 15:43:00,
2013-06-29 11:44:00,82.4,-99.9,-100.00,SSW,200,0.0,0.0,-999,0.00,,---,0.05,VWS V14.01,2013-06-29 15:44:00,
2013-06-29 11:45:00,81.4,-99.9,-100.00,SSW,200,0.0,0.0,-999,0.00,,---,0.05,VWS V14.01,2013-06-29 15:45:00,
2013-06-29 11:48:00,83.5,-99.9,-100.00,NW,308,3.5,3.5,-999,0.00,,---,0.05,VWS V14.01,2013-06-29 15:48:00,
2013-06-29 11:49:00,82.0,-99.9,-100.00,NNW,332,0.0,3.5,-999,0.00,,---,0.05,VWS V14.01,2013-06-29 15:49:00,
2013-06-29 11:50:00,80.9,-99.9,-100.00,NNW,332,0.0,0.0,-999,0.00,,---,0.05,VWS V14.01,2013-06-29 15:50:00,
2013-06-29 11:53:00,78.8,-99.9,-100.00,NNW,332,0.0,0.0,-999,0.00,,---,0.05,VWS V14.01,2013-06-29 15:53:00,
2013-06-29 11:54:00,78.8,-99.9,-100.00,NNW,332,0.0,0.0,-999,0.00,,---,0.05,VWS V14.01,2013-06-29 15:54:00,
2013-06-29 11:55:00,78.1,-99.9,-100.00,NNW,332,0.0,0.0,-999,0.00,,---,0.05,VWS V14.01,2013-06-29 15:55:00,
2013-06-29 11:58:00,76.1,-99.9,-100.00,NNW,332,3.2,3.2,-999,0.00,,---,0.05,VWS V14.01,2013-06-29 15:58:00,
2013-06-29 11:59:00,74.2,-99.9,-100.00,SSW,204,7.6,8.5,-999,0.00,,---,0.05,VWS V14.01,2013-06-29 15:59:00,
2013-06-29 12:01:00,73.6,-99.9,-100.00,WSW,245,4.4,5.3,-999,0.00,,---,0.05,VWS V14.01,2013-06-29 16:01:00,
2013-06-29 12:03:00,74.6,-99.9,-100.00,SW,217,2.7,3.5,-999,0.00,,---,0.05,VWS V14.01,2013-06-29 16:03:00,
2013-06-29 12:04:00,74.9,-99.9,-100.00,SW,219,5.4,5.7,-999,0.00,,---,0.05,VWS V14.01,2013-06-29 16:04:00,
2013-06-29 12:05:00,76.4,-99.9,-100.00,SW,228,2.8,4.2,-999,0.00,,---,0.05,VWS V14.01,2013-06-29 16:05:00,
2013-06-29 12:06:00,76.4,-99.9,-100.00,SE,139,4.3,5.5,-999,0.00,,---,0.05,VWS V14.01,2013-06-29 16:06:00,
2013-06-29 12:08:00,80.4,-99.9,-100.00,South,187,5.0,5.0,-999,0.00,,---,0.05,VWS V14.01,2013-06-29 16:08:00,
2013-06-29 12:09:00,80.1,-99.9,-100.00,SW,214,6.9,7.3,-999,0.00,,---,0.05,VWS V14.01,2013-06-29 16:09:00,
2013-06-29 12:10:00,79.4,-99.9,-100.00,South,179,3.2,5.6,-999,0.00,,---,0.05,VWS V14.01,2013-06-29 16:10:00,
2013-06-29 12:11:00,80.4,-99.9,-100.00,SW,224,7.3,7.3,-999,0.00,,---,0.05,VWS V14.01,2013-06-29 16:11:00,
2013-06-29 12:14:00,80.4,-99.9,-100.00,SSW,201,4.7,6.4,-999,0.00,,---,0.05,VWS V14.01,2013-06-29 16:14:00,
2013-06-29 12:15:00,78.8,-99.9,-100.00,South,184,3.1,4.8,-999,0.00,,---,0.05,VWS V14.01,2013-06-29 16:15:00,
2013-06-29 12:16:00,78.4,-99.9,-100.00,SE,131,3.1,3.4,-999,0.00,,---,0.05,VWS V14.01,2013-06-29 16:16:00,
2013-06-29 12:19:00,82.7,-99.9,-100.00,SE,131,0.0,0.0,-999,0.00,,---,0.05,VWS V14.01,2013-06-29 16:19:00,
2013-06-29 12:20:00,83.5,-99.9,-100.00,SE,131,0.0,0.0,-999,0.00,,---,0.05,VWS V14.01,2013-06-29 16:20:00,
2013-06-29 12:21:00,84.4,-99.9,-100.00,SE,131,0.0,0.0,-999,0.00,,---,0.05,VWS V14.01,2013-06-29 16:21:00,
2013-06-29 12:24:00,80.5,-99.9,-100.00,SSW,200,0.0,0.0,-999,0.00,,---,0.05,VWS V14.01,2013-06-29 16:24:00,
2013-06-29 12:25:00,80.4,-99.9,-100.00,SSW,200,0.0,0.0,-999,0.00,,---,0.05,VWS V14.01,2013-06-29 16:25:00,
2013-06-29 12:26:00,80.4,-99.9,-100.00,WSW,246,4.2,4.2,-999,0.00,,---,0.05,VWS V14.01,2013-06-29 16:26:00,
2013-06-29 12:29:00,77.8,-99.9,-100.00,SSE,153,0.0,0.0,-999,0.00,,---,0.05,VWS V14.01,2013-06-29 16:29:00,
2013-06-29 12:30:00,78.1,-99.9,-100.00,SSE,153,2.7,2.7,-999,0.00,,---,0.05,VWS V14.01,2013-06-29 16:30:00,
2013-06-29 12:31:00,76.1,-99.9,-100.00,WSW,248,3.0,4.5,-999,0.00,,---,0.05,VWS V14.01,2013-06-29 16:31:00,
2013-06-29 12:34:00,76.4,-99.9,-100.00,SW,233,3.0,4.5,-999,0.00,,---,0.05,VWS V14.01,2013-06-29 16:34:00,
2013-06-29 12:35:00,77.1,-99.9,-100.00,SSW,208,0.0,0.0,-999,0.00,,---,0.05,VWS V14.01,2013-06-29 16:35:00,
2013-06-29 12:36:00,78.4,-99.9,-100.00,SSW,208,0.0,0.0,-999,0.00,,---,0.05,VWS V14.01,2013-06-29 16:36:00,
2013-06-29 12:39:00,77.8,-99.9,-100.00,WSW,239,0.0,0.0,-999,0.00,,---,0.05,VWS V14.01,2013-06-29 16:39:00,
2013-06-29 12:40:00,78.1,-99.9,-100.00,WSW,239,0.0,0.0,-999,0.00,,---,0.05,VWS V14.01,2013-06-29 16:40:00,
2013-06-29 12:41:00,77.1,-99.9,-100.00,South,183,2.9,5.3,-999,0.00,,---,0.05,VWS V14.01,2013-06-29 16:41:00,
2013-06-29 12:44:00,76.4,-99.9,-100.00,SW,226,0.0,2.4,-999,0.00,,---,0.05,VWS V14.01,2013-06-29 16:44:00,
2013-06-29 12:45:00,76.8,-99.9,-100.00,SW,226,0.0,0.0,-999,0.00,,---,0.05,VWS V14.01,2013-06-29 16:45:00,
2013-06-29 12:46:00,76.4,-99.9,-100.00,South,176,2.6,6.7,-999,0.00,,---,0.05,VWS V14.01,2013-06-29 16:46:00,
2013-06-29 12:49:00,75.8,-99.9,-100.00,SSW,198,0.0,0.0,-999,0.00,,---,0.05,VWS V14.01,2013-06-29 16:49:00,
2013-06-29 12:50:00,76.1,-99.9,-100.00,SSW,198,0.0,0.0,-999,0.00,,---,0.05,VWS V14.01,2013-06-29 16:50:00,
2013-06-29 12:52:00,77.4,-99.9,-100.00,SSW,198,0.0,0.0,-999,0.00,,---,0.05,VWS V14.01,2013-06-29 16:52:00,
2013-06-29 12:54:00,78.1,-99.9,-100.00,SSW,198,0.0,0.0,-999,0.00,,---,0.05,VWS V14.01,2013-06-29 16:54:00,
2013-06-29 12:55:00,77.1,-99.9,-100.00,SSW,198,0.0,0.0,-999,0.00,,---,0.06,VWS V14.01,2013-06-29 16:55:00,
2013-06-29 12:56:00,77.4,-99.9,-100.00,SSW,198,0.0,0.0,-999,0.00,,---,0.06,VWS V14.01,2013-06-29 16:56:00,
2013-06-29 12:57:00,76.4,-99.9,-100.00,SSW,198,0.0,0.0,-999,0.00,,---,0.06,VWS V14.01,2013-06-29 16:57:00,
2013-06-29 13:00:00,76.4,-99.9,-100.00,SSW,198,0.0,0.0,-999,0.00,,---,0.08,VWS V14.01,2013-06-29 17:00:00,
2013-06-29 13:01:00,75.5,-99.9,-100.00,SSW,198,0.0,0.0,-999,0.00,,---,0.10,VWS V14.01,2013-06-29 17:01:00,
2013-06-29 13:02:00,74.6,-99.9,-100.00,SSW,198,0.0,0.0,-999,0.00,,---,0.11,VWS V14.01,2013-06-29 17:02:00,
2013-06-29 13:05:00,73.9,-99.9,-100.00,SSW,198,0.0,0.0,-999,0.00,,---,0.13,VWS V14.01,2013-06-29 17:05:00,
2013-06-29 13:06:00,73.9,-99.9,-100.00,SSW,198,0.0,0.0,-999,0.00,,---,0.14,VWS V14.01,2013-06-29 17:06:00,
2013-06-29 13:08:00,74.6,-99.9,-100.00,SSW,198,0.0,0.0,-999,0.00,,---,0.14,VWS V14.01,2013-06-29 17:08:00,
2013-06-29 13:10:00,74.6,-99.9,-100.00,SSW,198,0.0,0.0,-999,0.00,,---,0.15,VWS V14.01,2013-06-29 17:10:00,
2013-06-29 13:11:00,73.9,-99.9,-100.00,SSW,198,0.0,0.0,-999,0.00,,---,0.15,VWS V14.01,2013-06-29 17:11:00,
2013-06-29 13:13:00,73.9,-99.9,-100.00,SSW,198,0.0,0.0,-999,0.00,,---,0.16,VWS V14.01,2013-06-29 17:13:00,
2013-06-29 13:15:00,73.0,-99.9,-100.00,SSW,198,0.0,0.0,-999,0.00,,---,0.17,VWS V14.01,2013-06-29 17:15:00,
2013-06-29 13:16:00,73.0,-99.9,-100.00,SSW,198,0.0,0.0,-999,0.00,,---,0.17,VWS V14.01,2013-06-29 17:16:00,
2013-06-29 13:18:00,71.5,-99.9,-100.00,SSW,198,0.0,0.0,-999,0.00,,---,0.19,VWS V14.01,2013-06-29 17:18:00,
2013-06-29 13:21:00,72.0,-99.9,-100.00,SSW,198,0.0,0.0,-999,0.00,,---,0.21,VWS V14.01,2013-06-29 17:21:00,
2013-06-29 13:23:00,72.0,-99.9,-100.00,SSW,198,0.0,0.0,-999,0.00,,---,0.24,VWS V14.01,2013-06-29 17:23:00,
2013-06-29 13:26:00,70.8,-99.9,-100.00,SSW,198,0.0,0.0,-999,0.00,,---,0.29,VWS V14.01,2013-06-29 17:26:00,
2013-06-29 13:28:00,71.1,-99.9,-100.00,SSW,198,0.0,0.0,-999,0.00,,---,0.32,VWS V14.01,2013-06-29 17:28:00,
2013-06-29 13:31:00,71.5,-99.9,-100.00,SSW,198,0.0,0.0,-999,0.00,,---,0.33,VWS V14.01,2013-06-29 17:31:00,
2013-06-29 13:33:00,72.0,-99.9,-100.00,SSW,198,0.0,0.0,-999,0.00,,---,0.34,VWS V14.01,2013-06-29 17:33:00,
2013-06-29 13:36:00,72.7,-99.9,-100.00,SSW,198,0.0,0.0,-999,0.00,,---,0.35,VWS V14.01,2013-06-29 17:36:00,
2013-06-29 13:37:00,73.0,-99.9,-100.00,SSW,198,0.0,0.0,-999,0.00,,---,0.35,VWS V14.01,2013-06-29 17:37:00,
2013-06-29 13:39:00,73.6,-99.9,-100.00,SSW,198,0.0,0.0,-999,0.00,,---,0.36,VWS V14.01,2013-06-29 17:39:00,
2013-06-29 13:41:00,73.3,-99.9,-100.00,SSW,198,0.0,0.0,-999,0.00,,---,0.36,VWS V14.01,2013-06-29 17:41:00,
2013-06-29 13:42:00,73.9,-99.9,-100.00,SSW,198,0.0,0.0,-999,0.00,,---,0.36,VWS V14.01,2013-06-29 17:42:00,
2013-06-29 13:44:00,73.9,-99.9,-100.00,SSW,198,0.0,0.0,-999,0.00,,---,0.36,VWS V14.01,2013-06-29 17:44:00,
2013-06-29 13:46:00,73.9,-99.9,-100.00,SSW,198,0.0,0.0,-999,0.00,,---,0.36,VWS V14.01,2013-06-29 17:46:00,
2013-06-29 13:47:00,73.6,-99.9,-100.00,SSW,198,0.0,0.0,-999,0.00,,---,0.36,VWS V14.01,2013-06-29 17:47:00,
2013-06-29 13:49:00,73.9,-99.9,-100.00,SSW,198,0.0,0.0,-999,0.00,,---,0.36,VWS V14.01,2013-06-29 17:49:00,
2013-06-29 13:52:00,73.9,-99.9,-100.00,SSW,198,0.0,0.0,-999,0.00,,---,0.36,VWS V14.01,2013-06-29 17:52:00,
2013-06-29 13:54:00,73.9,-99.9,-100.00,SSW,198,0.0,0.0,-999,0.00,,---,0.36,VWS V14.01,2013-06-29 17:54:00,
2013-06-29 13:57:00,73.9,-99.9,-100.00,SSW,198,0.0,0.0,-999,0.00,,---,0.36,VWS V14.01,2013-06-29 17:57:00,
2013-06-29 13:58:00,74.9,-99.9,-100.00,SSW,198,0.0,0.0,-999,0.00,,---,0.36,VWS V14.01,2013-06-29 17:58:00,
2013-06-29 13:59:00,74.9,-99.9,-100.00,SSW,198,0.0,0.0,-999,0.00,,---,0.36,VWS V14.01,2013-06-29 17:59:00,
2013-06-29 14:02:00,74.9,-99.9,-100.00,SSW,198,0.0,0.0,-999,0.00,,---,0.36,VWS V14.01,2013-06-29 18:02:00,
2013-06-29 14:03:00,74.6,-99.9,-100.00,SSW,198,0.0,0.0,-999,0.00,,---,0.36,VWS V14.01,2013-06-29 18:03:00,
2013-06-29 14:04:00,74.9,-99.9,-100.00,SSW,198,0.0,0.0,-999,0.00,,---,0.36,VWS V14.01,2013-06-29 18:04:00,
2013-06-29 14:07:00,74.9,-99.9,-100.00,SSW,198,0.0,0.0,-999,0.00,,---,0.36,VWS V14.01,2013-06-29 18:07:00,
2013-06-29 14:08:00,75.3,-99.9,-100.00,SSW,198,0.0,0.0,-999,0.00,,---,0.36,VWS V14.01,2013-06-29 18:08:00,
2013-06-29 14:09:00,75.1,-99.9,-100.00,SSW,198,0.0,0.0,-999,0.00,,---,0.36,VWS V14.01,2013-06-29 18:09:00,
2013-06-29 14:12:00,74.9,-99.9,-100.00,SSW,198,0.0,0.0,-999,0.00,,---,0.36,VWS V14.01,2013-06-29 18:12:00,
2013-06-29 14:13:00,74.6,-99.9,-100.00,SSW,198,0.0,0.0,-999,0.00,,---,0.36,VWS V14.01,2013-06-29 18:13:00,
2013-06-29 14:14:00,74.6,-99.9,-100.00,SSW,198,0.0,0.0,-999,0.00,,---,0.36,VWS V14.01,2013-06-29 18:14:00,
2013-06-29 14:17:00,74.7,-99.9,-100.00,West,259,0.0,0.0,-999,0.00,,---,0.36,VWS V14.01,2013-06-29 18:17:00,
2013-06-29 14:18:00,74.8,-99.9,-100.00,West,259,0.0,0.0,-999,0.00,,---,0.36,VWS V14.01,2013-06-29 18:18:00,
2013-06-29 14:19:00,75.2,-99.9,-100.00,West,259,0.0,0.0,-999,0.00,,---,0.36,VWS V14.01,2013-06-29 18:19:00,
2013-06-29 14:22:00,76.4,-99.9,-100.00,West,259,0.0,0.0,-999,0.00,,---,0.36,VWS V14.01,2013-06-29 18:22:00,
2013-06-29 14:23:00,76.4,-99.9,-100.00,West,259,0.0,0.0,-999,0.00,,---,0.36,VWS V14.01,2013-06-29 18:23:00,
2013-06-29 14:25:00,77.4,-99.9,-100.00,West,259,0.0,0.0,-999,0.00,,---,0.36,VWS V14.01,2013-06-29 18:25:00,
2013-06-29 14:27:00,77.4,-99.9,-100.00,West,259,0.0,0.0,-999,0.00,,---,0.36,VWS V14.01,2013-06-29 18:27:00,
2013-06-29 14:28:00,77.4,-99.9,-100.00,West,259,0.0,0.0,-999,0.00,,---,0.36,VWS V14.01,2013-06-29 18:28:00,
2013-06-29 14:30:00,76.4,-99.9,-100.00,West,259,0.0,0.0,-999,0.00,,---,0.36,VWS V14.01,2013-06-29 18:30:00,
2013-06-29 14:33:00,76.1,-99.9,-100.00,NNW,328,0.0,0.0,-999,0.00,,---,0.36,VWS V14.01,2013-06-29 18:33:00,
2013-06-29 14:34:00,76.8,-99.9,-100.00,NNW,328,0.0,0.0,-999,0.00,,---,0.36,VWS V14.01,2013-06-29 18:34:00,
2013-06-29 14:38:00,76.8,-99.9,-100.00,NNW,328,0.0,0.0,-999,0.00,,---,0.36,VWS V14.01,2013-06-29 18:38:00,
2013-06-29 14:39:00,76.4,-99.9,-100.00,NNW,328,0.0,0.0,-999,0.00,,---,0.36,VWS V14.01,2013-06-29 18:39:00,
2013-06-29 14:40:00,76.4,-99.9,-100.00,NNW,328,0.0,0.0,-999,0.00,,---,0.36,VWS V14.01,2013-06-29 18:40:00,
2013-06-29 14:43:00,77.8,-99.9,-100.00,NNW,328,0.0,0.0,-999,0.00,,---,0.36,VWS V14.01,2013-06-29 18:43:00,
2013-06-29 14:44:00,78.1,-99.9,-100.00,NNW,328,0.0,0.0,-999,0.00,,---,0.36,VWS V14.01,2013-06-29 18:44:00,
2013-06-29 14:45:00,78.1,-99.9,-100.00,NW,307,3.4,3.4,-999,0.00,,---,0.36,VWS V14.01,2013-06-29 18:45:00,
2013-06-29 14:48:00,78.4,-99.9,-100.00,WNW,300,0.0,0.0,-999,0.00,,---,0.36,VWS V14.01,2013-06-29 18:48:00,
2013-06-29 14:49:00,79.1,-99.9,-100.00,WNW,300,0.0,0.0,-999,0.00,,---,0.36,VWS V14.01,2013-06-29 18:49:00,
2013-06-29 14:50:00,79.1,-99.9,-100.00,WNW,300,0.0,0.0,-999,0.00,,---,0.36,VWS V14.01,2013-06-29 18:50:00,
2013-06-29 14:53:00,78.4,-99.9,-100.00,WNW,300,0.0,0.0,-999,0.00,,---,0.36,VWS V14.01,2013-06-29 18:53:00,
2013-06-29 14:54:00,78.4,-99.9,-100.00,WNW,300,0.0,0.0,-999,0.00,,---,0.36,VWS V14.01,2013-06-29 18:54:00,
2013-06-29 14:55:00,79.4,-99.9,-100.00,WNW,300,0.0,0.0,-999,0.00,,---,0.36,VWS V14.01,2013-06-29 18:55:00,
2013-06-29 14:58:00,79.4,-99.9,-100.00,WNW,300,0.0,0.0,-999,0.00,,---,0.36,VWS V14.01,2013-06-29 18:58:00,
2013-06-29 14:59:00,79.1,-99.9,-100.00,WNW,300,0.0,0.0,-999,0.00,,---,0.36,VWS V14.01,2013-06-29 18:59:00,
2013-06-29 15:00:00,78.4,-99.9,-100.00,WNW,300,0.0,0.0,-999,0.00,,---,0.36,VWS V14.01,2013-06-29 19:00:00,
2013-06-29 15:03:00,79.4,-99.9,-100.00,WNW,300,0.0,0.0,-999,0.00,,---,0.36,VWS V14.01,2013-06-29 19:03:00,
2013-06-29 15:04:00,79.4,-99.9,-100.00,WNW,300,0.0,0.0,-999,0.00,,---,0.36,VWS V14.01,2013-06-29 19:04:00,
2013-06-29 15:05:00,79.1,-99.9,-100.00,WNW,300,0.0,0.0,-999,0.00,,---,0.36,VWS V14.01,2013-06-29 19:05:00,
2013-06-29 15:06:00,79.1,-99.9,-100.00,WNW,300,0.0,0.0,-999,0.00,,---,0.36,VWS V14.01,2013-06-29 19:06:00,
2013-06-29 15:08:00,79.4,-99.9,-100.00,NW,305,3.5,4.8,-999,0.00,,---,0.36,VWS V14.01,2013-06-29 19:08:00,
2013-06-29 15:09:00,77.8,-99.9,-100.00,WNW,302,0.0,2.9,-999,0.00,,---,0.36,VWS V14.01,2013-06-29 19:09:00,
2013-06-29 15:10:00,78.1,-99.9,-100.00,WNW,302,0.0,0.0,-999,0.00,,---,0.36,VWS V14.01,2013-06-29 19:10:00,
2013-06-29 15:11:00,78.4,-99.9,-100.00,WNW,302,0.0,0.0,-999,0.00,,---,0.36,VWS V14.01,2013-06-29 19:11:00,
2013-06-29 15:13:00,79.4,-99.9,-100.00,WNW,302,0.0,0.0,-999,0.00,,---,0.36,VWS V14.01,2013-06-29 19:13:00,
2013-06-29 15:14:00,80.4,-99.9,-100.00,WNW,302,0.0,0.0,-999,0.00,,---,0.36,VWS V14.01,2013-06-29 19:14:00,
2013-06-29 15:15:00,81.4,-99.9,-100.00,WNW,302,0.0,0.0,-999,0.00,,---,0.36,VWS V14.01,2013-06-29 19:15:00,
2013-06-29 15:16:00,82.0,-99.9,-100.00,WNW,302,0.0,0.0,-999,0.00,,---,0.36,VWS V14.01,2013-06-29 19:16:00,
2013-06-29 15:18:00,80.9,-99.9,-100.00,WNW,302,0.0,0.0,-999,0.00,,---,0.36,VWS V14.01,2013-06-29 19:18:00,
2013-06-29 15:19:00,81.4,-99.9,-100.00,WNW,302,0.0,0.0,-999,0.00,,---,0.36,VWS V14.01,2013-06-29 19:19:00,
2013-06-29 15:20:00,80.4,-99.9,-100.00,West,280,0.0,3.4,-999,0.00,,---,0.36,VWS V14.01,2013-06-29 19:20:00,
2013-06-29 15:21:00,80.4,-99.9,-100.00,West,280,0.0,0.0,-999,0.00,,---,0.36,VWS V14.01,2013-06-29 19:21:00,
2013-06-29 15:23:00,79.4,-99.9,-100.00,West,280,0.0,0.0,-999,0.00,,---,0.36,VWS V14.01,2013-06-29 19:23:00,
2013-06-29 15:24:00,79.1,-99.9,-100.00,West,280,0.0,0.0,-999,0.00,,---,0.36,VWS V14.01,2013-06-29 19:24:00,
2013-06-29 15:26:00,79.4,-99.9,-100.00,West,280,3.2,3.2,-999,0.00,,---,0.36,VWS V14.01,2013-06-29 19:26:00,
2013-06-29 15:28:00,79.1,-99.9,-100.00,NW,316,0.0,3.0,-999,0.00,,---,0.36,VWS V14.01,2013-06-29 19:28:00,
2013-06-29 15:29:00,79.4,-99.9,-100.00,NW,316,0.0,0.0,-999,0.00,,---,0.36,VWS V14.01,2013-06-29 19:29:00,
2013-06-29 15:30:00,80.4,-99.9,-100.00,NW,316,0.0,0.0,-999,0.00,,---,0.36,VWS V14.01,2013-06-29 19:30:00,
2013-06-29 15:31:00,80.5,-99.9,-100.00,NW,316,0.0,0.0,-999,0.00,,---,0.36,VWS V14.01,2013-06-29 19:31:00,
2013-06-29 15:33:00,82.4,-99.9,-100.00,NW,316,2.9,2.9,-999,0.00,,---,0.36,VWS V14.01,2013-06-29 19:33:00,
2013-06-29 15:34:00,82.4,-99.9,-100.00,WNW,301,2.9,4.5,-999,0.00,,---,0.36,VWS V14.01,2013-06-29 19:34:00,
2013-06-29 15:35:00,82.4,-99.9,-100.00,WSW,250,0.0,0.0,-999,0.00,,---,0.36,VWS V14.01,2013-06-29 19:35:00,
2013-06-29 15:36:00,83.1,-99.9,-100.00,WSW,250,0.0,0.0,-999,0.00,,---,0.36,VWS V14.01,2013-06-29 19:36:00,
2013-06-29 15:39:00,83.5,-99.9,-100.00,WSW,250,0.0,0.0,-999,0.00,,---,0.36,VWS V14.01,2013-06-29 19:39:00,
2013-06-29 15:40:00,82.7,-99.9,-100.00,WSW,250,0.0,0.0,-999,0.00,,---,0.36,VWS V14.01,2013-06-29 19:40:00,
2013-06-29 15:41:00,82.4,-99.9,-100.00,WSW,250,0.0,0.0,-999,0.00,,---,0.36,VWS V14.01,2013-06-29 19:41:00,
2013-06-29 15:44:00,80.5,-99.9,-100.00,WSW,250,0.0,0.0,-999,0.00,,---,0.36,VWS V14.01,2013-06-29 19:44:00,
2013-06-29 15:45:00,80.4,-99.9,-100.00,WSW,250,0.0,0.0,-999,0.00,,---,0.36,VWS V14.01,2013-06-29 19:45:00,
2013-06-29 15:46:00,79.8,-99.9,-100.00,WSW,250,0.0,0.0,-999,0.00,,---,0.36,VWS V14.01,2013-06-29 19:46:00,
2013-06-29 15:49:00,79.4,-99.9,-100.00,WSW,250,0.0,0.0,-999,0.00,,---,0.36,VWS V14.01,2013-06-29 19:49:00,
2013-06-29 15:51:00,79.4,-99.9,-100.00,WSW,250,0.0,0.0,-999,0.00,,---,0.36,VWS V14.01,2013-06-29 19:51:00,
2013-06-29 15:54:00,78.4,-99.9,-100.00,WSW,250,0.0,0.0,-999,0.00,,---,0.36,VWS V14.01,2013-06-29 19:54:00,
2013-06-29 15:55:00,79.4,-99.9,-100.00,WSW,250,0.0,0.0,-999,0.00,,---,0.36,VWS V14.01,2013-06-29 19:55:00,
2013-06-29 15:56:00,78.8,-99.9,-100.00,WSW,250,0.0,0.0,-999,0.00,,---,0.36,VWS V14.01,2013-06-29 19:56:00,
2013-06-29 16:00:00,79.8,-99.9,-100.00,WSW,250,0.0,0.0,-999,0.00,,---,0.36,VWS V14.01,2013-06-29 20:00:00,
2013-06-29 16:01:00,79.4,-99.9,-100.00,WSW,250,0.0,0.0,-999,0.00,,---,0.36,VWS V14.01,2013-06-29 20:01:00,
2013-06-29 16:02:00,80.1,-99.9,-100.00,WSW,250,0.0,0.0,-999,0.00,,---,0.36,VWS V14.01,2013-06-29 20:02:00,
2013-06-29 16:05:00,81.4,-99.9,-100.00,WSW,250,0.0,0.0,-999,0.00,,---,0.36,VWS V14.01,2013-06-29 20:05:00,
2013-06-29 16:06:00,82.4,-99.9,-100.00,WSW,250,0.0,0.0,-999,0.00,,---,0.36,VWS V14.01,2013-06-29 20:06:00,
2013-06-29 16:07:00,82.4,-99.9,-100.00,WSW,250,0.0,0.0,-999,0.00,,---,0.36,VWS V14.01,2013-06-29 20:07:00,
2013-06-29 16:10:00,83.1,-99.9,-100.00,NNE,32,0.0,2.6,-999,0.00,,---,0.36,VWS V14.01,2013-06-29 20:10:00,
2013-06-29 16:11:00,83.5,-99.9,-100.00,North,359,2.7,5.4,-999,0.00,,---,0.36,VWS V14.01,2013-06-29 20:11:00,
2013-06-29 16:12:00,83.5,-99.9,-100.00,North,7,2.7,3.0,-999,0.00,,---,0.36,VWS V14.01,2013-06-29 20:12:00,
2013-06-29 16:15:00,81.4,-99.9,-100.00,WSW,255,0.0,0.0,-999,0.00,,---,0.36,VWS V14.01,2013-06-29 20:15:00,
2013-06-29 16:16:00,80.4,-99.9,-100.00,WSW,255,0.0,0.0,-999,0.00,,---,0.36,VWS V14.01,2013-06-29 20:16:00,
2013-06-29 16:17:00,80.5,-99.9,-100.00,WSW,255,0.0,0.0,-999,0.00,,---,0.36,VWS V14.01,2013-06-29 20:17:00,
2013-06-29 16:20:00,82.0,-99.9,-100.00,NNE,28,3.2,5.8,-999,0.00,,---,0.36,VWS V14.01,2013-06-29 20:20:00,
2013-06-29 16:21:00,82.4,-99.9,-100.00,North,6,0.0,3.2,-999,0.00,,---,0.36,VWS V14.01,2013-06-29 20:21:00,
2013-06-29 16:22:00,81.4,-99.9,-100.00,WNW,288,3.4,7.0,-999,0.00,,---,0.36,VWS V14.01,2013-06-29 20:22:00,
2013-06-29 16:25:00,81.6,-99.9,-100.00,WNW,287,3.4,7.3,-999,0.00,,---,0.36,VWS V14.01,2013-06-29 20:25:00,
2013-06-29 16:26:00,82.0,-99.9,-100.00,West,276,4.7,4.7,-999,0.00,,---,0.36,VWS V14.01,2013-06-29 20:26:00,
2013-06-29 16:27:00,81.4,-99.9,-100.00,NE,41,0.0,4.9,-999,0.00,,---,0.36,VWS V14.01,2013-06-29 20:27:00,
2013-06-29 16:30:00,79.4,-99.9,-100.00,WNW,287,5.4,7.3,-999,0.00,,---,0.36,VWS V14.01,2013-06-29 20:30:00,
2013-06-29 16:31:00,79.4,-99.9,-100.00,West,276,6.2,6.2,-999,0.00,,---,0.36,VWS V14.01,2013-06-29 20:31:00,
2013-06-29 16:32:00,79.4,-99.9,-100.00,North,11,0.0,0.0,-999,0.00,,---,0.36,VWS V14.01,2013-06-29 20:32:00,
2013-06-29 16:36:00,80.4,-99.9,-100.00,North,11,0.0,0.0,-999,0.00,,---,0.36,VWS V14.01,2013-06-29 20:36:00,
2013-06-29 16:37:00,80.4,-99.9,-100.00,North,11,0.0,0.0,-999,0.00,,---,0.36,VWS V14.01,2013-06-29 20:37:00,
2013-06-29 16:41:00,80.4,-99.9,-100.00,WNW,285,0.0,6.3,-999,0.00,,---,0.36,VWS V14.01,2013-06-29 20:41:00,
2013-06-29 16:42:00,81.4,-99.9,-100.00,WNW,292,2.9,3.4,-999,0.00,,---,0.36,VWS V14.01,2013-06-29 20:42:00,
2013-06-29 16:46:00,80.9,-99.9,-100.00,North,11,0.0,0.0,-999,0.00,,---,0.36,VWS V14.01,2013-06-29 20:46:00,
2013-06-29 16:47:00,80.9,-99.9,-100.00,North,11,0.0,0.0,-999,0.00,,---,0.36,VWS V14.01,2013-06-29 20:47:00,
2013-06-29 16:48:00,80.4,-99.9,-100.00,North,11,0.0,0.0,-999,0.00,,---,0.36,VWS V14.01,2013-06-29 20:48:00,
2013-06-29 16:51:00,78.4,-99.9,-100.00,WNW,291,0.0,0.0,-999,0.00,,---,0.36,VWS V14.01,2013-06-29 20:51:00,
2013-06-29 16:52:00,78.1,-99.9,-100.00,WNW,291,0.0,0.0,-999,0.00,,---,0.36,VWS V14.01,2013-06-29 20:52:00,
2013-06-29 16:53:00,77.8,-99.9,-100.00,WNW,291,0.0,0.0,-999,0.00,,---,0.36,VWS V14.01,2013-06-29 20:53:00,
2013-06-29 16:56:00,77.2,-99.9,-100.00,WNW,291,0.0,0.0,-999,0.00,,---,0.36,VWS V14.01,2013-06-29 20:56:00,
2013-06-29 16:57:00,77.0,-99.9,-100.00,WNW,291,0.0,0.0,-999,0.00,,---,0.36,VWS V14.01,2013-06-29 20:57:00,
2013-06-29 16:58:00,77.0,-99.9,-100.00,WNW,291,0.0,0.0,-999,0.00,,---,0.36,VWS V14.01,2013-06-29 20:58:00,
2013-06-29 17:01:00,76.1,-99.9,-100.00,WNW,291,0.0,0.0,-999,0.00,,---,0.36,VWS V14.01,2013-06-29 21:01:00,
2013-06-29 17:03:00,75.8,-99.9,-100.00,WNW,291,0.0,0.0,-999,0.00,,---,0.36,VWS V14.01,2013-06-29 21:03:00,
2013-06-29 17:06:00,75.2,-99.9,-100.00,WNW,291,0.0,0.0,-999,0.00,,---,0.36,VWS V14.01,2013-06-29 21:06:00,
2013-06-29 17:07:00,74.9,-99.9,-100.00,WNW,291,0.0,0.0,-999,0.00,,---,0.36,VWS V14.01,2013-06-29 21:07:00,
2013-06-29 17:08:00,74.9,-99.9,-100.00,WNW,291,0.0,0.0,-999,0.00,,---,0.36,VWS V14.01,2013-06-29 21:08:00,
2013-06-29 17:11:00,74.6,-99.9,-100.00,WNW,291,0.0,0.0,-999,0.00,,---,0.36,VWS V14.01,2013-06-29 21:11:00,
2013-06-29 17:12:00,73.9,-99.9,-100.00,WNW,291,0.0,0.0,-999,0.00,,---,0.36,VWS V14.01,2013-06-29 21:12:00,
2013-06-29 17:13:00,73.9,-99.9,-100.00,WNW,291,0.0,0.0,-999,0.00,,---,0.36,VWS V14.01,2013-06-29 21:13:00,
2013-06-29 17:16:00,73.9,-99.9,-100.00,WNW,291,0.0,0.0,-999,0.00,,---,0.36,VWS V14.01,2013-06-29 21:16:00,
2013-06-29 17:17:00,73.9,-99.9,-100.00,WNW,291,0.0,0.0,-999,0.00,,---,0.36,VWS V14.01,2013-06-29 21:17:00,
2013-06-29 17:18:00,73.9,-99.9,-100.00,WNW,291,0.0,0.0,-999,0.00,,---,0.36,VWS V14.01,2013-06-29 21:18:00,
2013-06-29 17:22:00,73.0,-99.9,-100.00,WNW,291,0.0,0.0,-999,0.00,,---,0.36,VWS V14.01,2013-06-29 21:22:00,
2013-06-29 17:23:00,73.3,-99.9,-100.00,West,276,6.5,6.5,-999,0.00,,---,0.36,VWS V14.01,2013-06-29 21:23:00,
2013-06-29 17:27:00,73.0,-99.9,-100.00,NNW,340,0.0,0.0,-999,0.00,,---,0.36,VWS V14.01,2013-06-29 21:27:00,
2013-06-29 17:28:00,73.0,-99.9,-100.00,NNW,340,0.0,0.0,-999,0.00,,---,0.36,VWS V14.01,2013-06-29 21:28:00,
2013-06-29 17:29:00,73.0,-99.9,-100.00,NNW,340,0.0,0.0,-999,0.00,,---,0.36,VWS V14.01,2013-06-29 21:29:00,
2013-06-29 17:32:00,72.0,-99.9,-100.00,NNW,340,0.0,0.0,-999,0.00,,---,0.36,VWS V14.01,2013-06-29 21:32:00,
2013-06-29 17:33:00,72.0,-99.9,-100.00,NNW,340,0.0,0.0,-999,0.00,,---,0.36,VWS V14.01,2013-06-29 21:33:00,
2013-06-29 17:34:00,72.0,-99.9,-100.00,NNW,340,0.0,0.0,-999,0.00,,---,0.36,VWS V14.01,2013-06-29 21:34:00,
2013-06-29 17:37:00,72.0,-99.9,-100.00,NNW,340,0.0,0.0,-999,0.00,,---,0.36,VWS V14.01,2013-06-29 21:37:00,
2013-06-29 17:38:00,71.7,-99.9,-100.00,NNW,340,0.0,0.0,-999,0.00,,---,0.36,VWS V14.01,2013-06-29 21:38:00,
2013-06-29 17:39:00,71.1,-99.9,-100.00,NNW,340,0.0,0.0,-999,0.00,,---,0.36,VWS V14.01,2013-06-29 21:39:00,
2013-06-29 17:42:00,71.1,-99.9,-100.00,NNW,340,0.0,0.0,-999,0.00,,---,0.36,VWS V14.01,2013-06-29 21:42:00,
2013-06-29 17:43:00,71.1,-99.9,-100.00,NNW,340,0.0,0.0,-999,0.00,,---,0.36,VWS V14.01,2013-06-29 21:43:00,
2013-06-29 17:44:00,71.1,-99.9,-100.00,NNW,340,0.0,0.0,-999,0.00,,---,0.36,VWS V14.01,2013-06-29 21:44:00,
2013-06-29 17:47:00,71.1,-99.9,-100.00,NNW,340,0.0,0.0,-999,0.00,,---,0.36,VWS V14.01,2013-06-29 21:47:00,
2013-06-29 17:48:00,71.5,-99.9,-100.00,NNW,340,0.0,0.0,-999,0.00,,---,0.36,VWS V14.01,2013-06-29 21:48:00,
2013-06-29 17:49:00,71.1,-99.9,-100.00,NNW,340,0.0,0.0,-999,0.00,,---,0.36,VWS V14.01,2013-06-29 21:49:00,
2013-06-29 17:53:00,70.2,-99.9,-100.00,NNW,340,0.0,0.0,-999,0.00,,---,0.36,VWS V14.01,2013-06-29 21:53:00,
2013-06-29 17:54:00,70.2,-99.9,-100.00,NNW,340,0.0,0.0,-999,0.00,,---,0.36,VWS V14.01,2013-06-29 21:54:00,
2013-06-29 17:58:00,70.2,-99.9,-100.00,NNW,340,0.0,0.0,-999,0.00,,---,0.36,VWS V14.01,2013-06-29 21:58:00,
2013-06-29 17:59:00,70.2,-99.9,-100.00,NNW,340,0.0,0.0,-999,0.00,,---,0.36,VWS V14.01,2013-06-29 21:59:00,
2013-06-29 18:03:00,70.2,-99.9,-100.00,NNW,340,0.0,0.0,-999,0.00,,---,0.36,VWS V14.01,2013-06-29 22:03:00,
2013-06-29 18:04:00,70.2,-99.9,-100.00,NNW,340,0.0,0.0,-999,0.00,,---,0.36,VWS V14.01,2013-06-29 22:04:00,
2013-06-29 18:08:00,69.9,-99.9,-100.00,NNW,340,0.0,0.0,-999,0.00,,---,0.36,VWS V14.01,2013-06-29 22:08:00,
2013-06-29 18:09:00,69.6,-99.9,-100.00,NNW,340,0.0,0.0,-999,0.00,,---,0.36,VWS V14.01,2013-06-29 22:09:00,
2013-06-29 18:13:00,69.4,-99.9,-100.00,NNW,340,0.0,0.0,-999,0.00,,---,0.36,VWS V14.01,2013-06-29 22:13:00,
2013-06-29 18:14:00,69.4,-99.9,-100.00,NNW,340,0.0,0.0,-999,0.00,,---,0.36,VWS V14.01,2013-06-29 22:14:00,
2013-06-29 18:15:00,69.4,-99.9,-100.00,NNW,340,0.0,0.0,-999,0.00,,---,0.36,VWS V14.01,2013-06-29 22:15:00,
2013-06-29 18:18:00,68.7,-99.9,-100.00,NNW,340,0.0,0.0,-999,0.00,,---,0.36,VWS V14.01,2013-06-29 22:18:00,
2013-06-29 18:19:00,69.4,-99.9,-100.00,NNW,340,0.0,0.0,-999,0.00,,---,0.36,VWS V14.01,2013-06-29 22:19:00,
2013-06-29 18:20:00,68.7,-99.9,-100.00,NNW,340,0.0,0.0,-999,0.00,,---,0.36,VWS V14.01,2013-06-29 22:20:00,
2013-06-29 18:23:00,69.4,-99.9,-100.00,NNW,340,0.0,0.0,-999,0.00,,---,0.36,VWS V14.01,2013-06-29 22:23:00,
2013-06-29 18:24:00,69.4,-99.9,-100.00,NNW,340,0.0,0.0,-999,0.00,,---,0.36,VWS V14.01,2013-06-29 22:24:00,
2013-06-29 18:25:00,69.4,-99.9,-100.00,NNW,340,0.0,0.0,-999,0.00,,---,0.36,VWS V14.01,2013-06-29 22:25:00,
2013-06-29 18:28:00,69.4,-99.9,-100.00,NNW,340,0.0,0.0,-999,0.00,,---,0.36,VWS V14.01,2013-06-29 22:28:00,
2013-06-29 18:30:00,68.7,-99.9,-100.00,NNW,340,0.0,0.0,-999,0.00,,---,0.36,VWS V14.01,2013-06-29 22:30:00,
2013-06-29 18:33:00,68.5,-99.9,-100.00,NNW,340,0.0,0.0,-999,0.00,,---,0.36,VWS V14.01,2013-06-29 22:33:00,
2013-06-29 18:35:00,68.5,-99.9,-100.00,NNW,340,0.0,0.0,-999,0.00,,---,0.36,VWS V14.01,2013-06-29 22:35:00,
2013-06-29 18:38:00,69.4,-99.9,-100.00,NNW,340,0.0,0.0,-999,0.00,,---,0.37,VWS V14.01,2013-06-29 22:38:00,
2013-06-29 18:39:00,68.7,-99.9,-100.00,NNW,340,0.0,0.0,-999,0.00,,---,0.37,VWS V14.01,2013-06-29 22:39:00,
2013-06-29 18:40:00,69.0,-99.9,-100.00,NNW,340,0.0,0.0,-999,0.00,,---,0.37,VWS V14.01,2013-06-29 22:40:00,
2013-06-29 18:43:00,68.7,-99.9,-100.00,NNW,340,0.0,0.0,-999,0.00,,---,0.38,VWS V14.01,2013-06-29 22:43:00,
2013-06-29 18:44:00,68.7,-99.9,-100.00,NNW,340,0.0,0.0,-999,0.00,,---,0.38,VWS V14.01,2013-06-29 22:44:00,
2013-06-29 18:45:00,68.7,-99.9,-100.00,NNW,340,0.0,0.0,-999,0.00,,---,0.38,VWS V14.01,2013-06-29 22:45:00,
2013-06-29 18:49:00,68.7,-99.9,-100.00,NNW,340,0.0,0.0,-999,0.00,,---,0.41,VWS V14.01,2013-06-29 22:49:00,
2013-06-29 18:50:00,68.5,-99.9,-100.00,NNW,340,0.0,0.0,-999,0.00,,---,0.41,VWS V14.01,2013-06-29 22:50:00,
2013-06-29 18:54:00,68.5,-99.9,-100.00,NNW,340,0.0,0.0,-999,0.00,,---,0.43,VWS V14.01,2013-06-29 22:54:00,
2013-06-29 18:55:00,68.5,-99.9,-100.00,NNW,340,0.0,0.0,-999,0.00,,---,0.43,VWS V14.01,2013-06-29 22:55:00,
2013-06-29 18:56:00,68.5,-99.9,-100.00,NNW,340,0.0,0.0,-999,0.00,,---,0.43,VWS V14.01,2013-06-29 22:56:00,
2013-06-29 18:59:00,68.5,-99.9,-100.00,NNW,340,0.0,0.0,-999,0.00,,---,0.44,VWS V14.01,2013-06-29 22:59:00,
2013-06-29 19:00:00,68.5,-99.9,-100.00,NNW,340,0.0,0.0,-999,0.00,,---,0.44,VWS V14.01,2013-06-29 23:00:00,
2013-06-29 19:01:00,68.2,-99.9,-100.00,NNW,340,0.0,0.0,-999,0.00,,---,0.44,VWS V14.01,2013-06-29 23:01:00,
2013-06-29 19:04:00,68.2,-99.9,-100.00,NNW,340,0.0,0.0,-999,0.00,,---,0.45,VWS V14.01,2013-06-29 23:04:00,
2013-06-29 19:05:00,67.7,-99.9,-100.00,NNW,340,0.0,0.0,-999,0.00,,---,0.45,VWS V14.01,2013-06-29 23:05:00,
2013-06-29 19:06:00,68.0,-99.9,-100.00,NNW,340,0.0,0.0,-999,0.00,,---,0.45,VWS V14.01,2013-06-29 23:06:00,
2013-06-29 19:09:00,68.0,-99.9,-100.00,NNW,340,0.0,0.0,-999,0.00,,---,0.46,VWS V14.01,2013-06-29 23:09:00,
2013-06-29 19:10:00,67.7,-99.9,-100.00,NNW,340,0.0,0.0,-999,0.00,,---,0.46,VWS V14.01,2013-06-29 23:10:00,
2013-06-29 19:11:00,67.7,-99.9,-100.00,NNW,340,0.0,0.0,-999,0.00,,---,0.46,VWS V14.01,2013-06-29 23:11:00,
2013-06-29 19:14:00,66.8,-99.9,-100.00,NNW,340,0.0,0.0,-999,0.00,,---,0.47,VWS V14.01,2013-06-29 23:14:00,
2013-06-29 19:15:00,67.7,-99.9,-100.00,NNW,340,0.0,0.0,-999,0.00,,---,0.47,VWS V14.01,2013-06-29 23:15:00,
2013-06-29 19:16:00,67.3,-99.9,-100.00,NNW,340,0.0,0.0,-999,0.00,,---,0.47,VWS V14.01,2013-06-29 23:16:00,
2013-06-29 19:19:00,67.7,-99.9,-100.00,NNW,340,0.0,0.0,-999,0.00,,---,0.48,VWS V14.01,2013-06-29 23:19:00,
2013-06-29 19:20:00,67.7,-99.9,-100.00,NNW,340,0.0,0.0,-999,0.00,,---,0.48,VWS V14.01,2013-06-29 23:20:00,
2013-06-29 19:21:00,67.3,-99.9,-100.00,NNW,340,0.0,0.0,-999,0.00,,---,0.48,VWS V14.01,2013-06-29 23:21:00,
2013-06-29 19:24:00,67.7,-99.9,-100.00,NNW,340,0.0,0.0,-999,0.00,,---,0.48,VWS V14.01,2013-06-29 23:24:00,
2013-06-29 19:25:00,67.3,-99.9,-100.00,NNW,340,0.0,0.0,-999,0.00,,---,0.49,VWS V14.01,2013-06-29 23:25:00,
2013-06-29 19:26:00,67.1,-99.9,-100.00,NNW,340,0.0,0.0,-999,0.00,,---,0.49,VWS V14.01,2013-06-29 23:26:00,
2013-06-29 19:29:00,67.7,-99.9,-100.00,NNW,340,0.0,0.0,-999,0.00,,---,0.49,VWS V14.01,2013-06-29 23:29:00,
2013-06-29 19:31:00,67.7,-99.9,-100.00,NNW,340,0.0,0.0,-999,0.00,,---,0.49,VWS V14.01,2013-06-29 23:31:00,
2013-06-29 19:35:00,67.7,-99.9,-100.00,NNW,340,0.0,0.0,-999,0.00,,---,0.49,VWS V14.01,2013-06-29 23:35:00,
2013-06-29 19:36:00,67.7,-99.9,-100.00,NNW,340,0.0,0.0,-999,0.00,,---,0.49,VWS V14.01,2013-06-29 23:36:00,
2013-06-29 19:40:00,67.7,-99.9,-100.00,NNW,340,0.0,0.0,-999,0.00,,---,0.50,VWS V14.01,2013-06-29 23:40:00,
2013-06-29 19:41:00,67.7,-99.9,-100.00,NNW,340,0.0,0.0,-999,0.00,,---,0.50,VWS V14.01,2013-06-29 23:41:00,
2013-06-29 19:42:00,67.7,-99.9,-100.00,NNW,340,0.0,0.0,-999,0.00,,---,0.50,VWS V14.01,2013-06-29 23:42:00,
2013-06-29 19:45:00,67.7,-99.9,-100.00,NNW,340,0.0,0.0,-999,0.00,,---,0.50,VWS V14.01,2013-06-29 23:45:00,
2013-06-29 19:46:00,67.7,-99.9,-100.00,NNW,340,0.0,0.0,-999,0.00,,---,0.50,VWS V14.01,2013-06-29 23:46:00,
2013-06-29 19:47:00,67.7,-99.9,-100.00,NNW,340,0.0,0.0,-999,0.00,,---,0.50,VWS V14.01,2013-06-29 23:47:00,
2013-06-29 19:50:00,68.0,-99.9,-100.00,NNW,340,0.0,0.0,-999,0.00,,---,0.50,VWS V14.01,2013-06-29 23:50:00,
2013-06-29 19:51:00,68.0,-99.9,-100.00,NNW,340,0.0,0.0,-999,0.00,,---,0.50,VWS V14.01,2013-06-29 23:51:00,
2013-06-29 19:52:00,67.7,-99.9,-100.00,NNW,340,0.0,0.0,-999,0.00,,---,0.50,VWS V14.01,2013-06-29 23:52:00,
2013-06-29 19:55:00,67.7,-99.9,-100.00,NNW,340,0.0,0.0,-999,0.00,,---,0.51,VWS V14.01,2013-06-29 23:55:00,
2013-06-29 19:56:00,67.7,-99.9,-100.00,NNW,340,0.0,0.0,-999,0.00,,---,0.51,VWS V14.01,2013-06-29 23:56:00,
2013-06-29 19:57:00,67.7,-99.9,-100.00,NNW,340,0.0,0.0,-999,0.00,,---,0.51,VWS V14.01,2013-06-29 23:57:00,
2013-06-29 20:00:00,67.3,-99.9,-100.00,NNW,340,0.0,0.0,-999,0.00,,---,0.51,VWS V14.01,2013-06-30 00:00:00,
2013-06-29 20:01:00,67.3,-99.9,-100.00,NNW,340,0.0,0.0,-999,0.00,,---,0.51,VWS V14.01,2013-06-30 00:01:00,
2013-06-29 20:02:00,67.7,-99.9,-100.00,NNW,340,0.0,0.0,-999,0.00,,---,0.51,VWS V14.01,2013-06-30 00:02:00,
2013-06-29 20:03:00,66.8,-99.9,-100.00,NNW,340,0.0,0.0,-999,0.00,,---,0.51,VWS V14.01,2013-06-30 00:03:00,
2013-06-29 20:05:00,67.1,-99.9,-100.00,NNW,340,0.0,0.0,-999,0.00,,---,0.51,VWS V14.01,2013-06-30 00:05:00,
2013-06-29 20:06:00,67.1,-99.9,-100.00,NNW,340,0.0,0.0,-999,0.00,,---,0.51,VWS V14.01,2013-06-30 00:06:00,
2013-06-29 20:07:00,67.1,-99.9,-100.00,NNW,340,0.0,0.0,-999,0.00,,---,0.51,VWS V14.01,2013-06-30 00:07:00,
2013-06-29 20:08:00,67.1,-99.9,-100.00,NNW,340,0.0,0.0,-999,0.00,,---,0.51,VWS V14.01,2013-06-30 00:08:00,
2013-06-29 20:10:00,67.3,-99.9,-100.00,NNW,340,0.0,0.0,-999,0.00,,---,0.51,VWS V14.01,2013-06-30 00:10:00,
2013-06-29 20:12:00,67.1,-99.9,-100.00,NNW,340,0.0,0.0,-999,0.00,,---,0.51,VWS V14.01,2013-06-30 00:12:00,
2013-06-29 20:14:00,67.1,-99.9,-100.00,NNW,340,0.0,0.0,-999,0.00,,---,0.51,VWS V14.01,2013-06-30 00:14:00,
2013-06-29 20:15:00,67.1,-99.9,-100.00,NNW,340,0.0,0.0,-999,0.00,,---,0.51,VWS V14.01,2013-06-30 00:15:00,
2013-06-29 20:17:00,66.8,-99.9,-100.00,NNW,340,0.0,0.0,-999,0.00,,---,0.51,VWS V14.01,2013-06-30 00:17:00,
2013-06-29 20:18:00,66.8,-99.9,-100.00,NNW,340,0.0,0.0,-999,0.00,,---,0.51,VWS V14.01,2013-06-30 00:18:00,
2013-06-29 20:19:00,66.8,-99.9,-100.00,NNW,340,0.0,0.0,-999,0.00,,---,0.51,VWS V14.01,2013-06-30 00:19:00,
2013-06-29 20:21:00,66.8,-99.9,-100.00,NNW,340,0.0,0.0,-999,0.00,,---,0.51,VWS V14.01,2013-06-30 00:21:00,
2013-06-29 20:22:00,66.8,-99.9,-100.00,NNW,340,0.0,0.0,-999,0.00,,---,0.51,VWS V14.01,2013-06-30 00:22:00,
2013-06-29 20:23:00,66.8,-99.9,-100.00,NNW,340,0.0,0.0,-999,0.00,,---,0.51,VWS V14.01,2013-06-30 00:23:00,
2013-06-29 20:24:00,66.8,-99.9,-100.00,NNW,340,0.0,0.0,-999,0.00,,---,0.51,VWS V14.01,2013-06-30 00:24:00,
2013-06-29 20:26:00,66.8,-99.9,-100.00,NNW,340,0.0,0.0,-999,0.00,,---,0.51,VWS V14.01,2013-06-30 00:26:00,
2013-06-29 20:27:00,66.8,-99.9,-100.00,NNW,340,0.0,0.0,-999,0.00,,---,0.51,VWS V14.01,2013-06-30 00:27:00,
2013-06-29 20:28:00,66.8,-99.9,-100.00,NNW,340,0.0,0.0,-999,0.00,,---,0.51,VWS V14.01,2013-06-30 00:28:00,
2013-06-29 20:29:00,66.8,-99.9,-100.00,NNW,340,0.0,0.0,-999,0.00,,---,0.51,VWS V14.01,2013-06-30 00:29:00,
2013-06-29 20:31:00,66.4,-99.9,-100.00,NNW,340,0.0,0.0,-999,0.00,,---,0.51,VWS V14.01,2013-06-30 00:31:00,
2013-06-29 20:32:00,66.4,-99.9,-100.00,NNW,340,0.0,0.0,-999,0.00,,---,0.51,VWS V14.01,2013-06-30 00:32:00,
2013-06-29 20:33:00,66.2,-99.9,-100.00,NNW,340,0.0,0.0,-999,0.00,,---,0.51,VWS V14.01,2013-06-30 00:33:00,
2013-06-29 20:34:00,66.4,-99.9,-100.00,NNW,340,0.0,0.0,-999,0.00,,---,0.51,VWS V14.01,2013-06-30 00:34:00,
2013-06-29 20:36:00,65.9,-99.9,-100.00,NNW,340,0.0,0.0,-999,0.00,,---,0.51,VWS V14.01,2013-06-30 00:36:00,
2013-06-29 20:37:00,66.2,-99.9,-100.00,NNW,340,0.0,0.0,-999,0.00,,---,0.51,VWS V14.01,2013-06-30 00:37:00,
2013-06-29 20:38:00,66.2,-99.9,-100.00,NNW,340,0.0,0.0,-999,0.00,,---,0.51,VWS V14.01,2013-06-30 00:38:00,
2013-06-29 20:39:00,66.2,-99.9,-100.00,NNW,340,0.0,0.0,-999,0.00,,---,0.51,VWS V14.01,2013-06-30 00:39:00,
2013-06-29 20:42:00,66.4,-99.9,-100.00,NNW,340,0.0,0.0,-999,0.00,,---,0.51,VWS V14.01,2013-06-30 00:42:00,
2013-06-29 20:43:00,66.8,-99.9,-100.00,NNW,340,0.0,0.0,-999,0.00,,---,0.51,VWS V14.01,2013-06-30 00:43:00,
2013-06-29 20:44:00,66.2,-99.9,-100.00,NNW,340,0.0,0.0,-999,0.00,,---,0.51,VWS V14.01,2013-06-30 00:44:00,
2013-06-29 20:47:00,66.2,-99.9,-100.00,NNW,340,0.0,0.0,-999,0.00,,---,0.51,VWS V14.01,2013-06-30 00:47:00,
2013-06-29 20:49:00,66.4,-99.9,-100.00,NNW,340,0.0,0.0,-999,0.00,,---,0.51,VWS V14.01,2013-06-30 00:49:00,
2013-06-29 20:52:00,66.4,-99.9,-100.00,NNW,340,0.0,0.0,-999,0.00,,---,0.51,VWS V14.01,2013-06-30 00:52:00,
2013-06-29 20:54:00,65.9,-99.9,-100.00,NNW,340,0.0,0.0,-999,0.00,,---,0.51,VWS V14.01,2013-06-30 00:54:00,
2013-06-29 20:57:00,65.9,-99.9,-100.00,NNW,340,0.0,0.0,-999,0.00,,---,0.51,VWS V14.01,2013-06-30 00:57:00,
2013-06-29 20:59:00,65.9,-99.9,-100.00,NNW,340,0.0,0.0,-999,0.00,,---,0.51,VWS V14.01,2013-06-30 00:59:00,
2013-06-29 21:00:00,65.9,-99.9,-100.00,NNW,340,0.0,0.0,-999,0.00,,---,0.51,VWS V14.01,2013-06-30 01:00:00,
2013-06-29 21:02:00,65.6,-99.9,-100.00,NNW,340,0.0,0.0,-999,0.00,,---,0.51,VWS V14.01,2013-06-30 01:02:00,
2013-06-29 21:04:00,65.6,-99.9,-100.00,NNW,340,0.0,0.0,-999,0.00,,---,0.51,VWS V14.01,2013-06-30 01:04:00,
2013-06-29 21:05:00,65.3,-99.9,-100.00,NNW,340,0.0,0.0,-999,0.00,,---,0.51,VWS V14.01,2013-06-30 01:05:00,
2013-06-29 21:07:00,65.0,-99.9,-100.00,NNW,340,0.0,0.0,-999,0.00,,---,0.51,VWS V14.01,2013-06-30 01:07:00,
2013-06-29 21:08:00,65.0,-99.9,-100.00,NNW,340,0.0,0.0,-999,0.00,,---,0.51,VWS V14.01,2013-06-30 01:08:00,
2013-06-29 21:09:00,65.3,-99.9,-100.00,NNW,340,0.0,0.0,-999,0.00,,---,0.51,VWS V14.01,2013-06-30 01:09:00,
2013-06-29 21:10:00,65.3,-99.9,-100.00,NNW,340,0.0,0.0,-999,0.00,,---,0.51,VWS V14.01,2013-06-30 01:10:00,
2013-06-29 21:13:00,65.0,-99.9,-100.00,NNW,340,0.0,0.0,-999,0.00,,---,0.51,VWS V14.01,2013-06-30 01:13:00,
2013-06-29 21:14:00,65.0,-99.9,-100.00,NNW,340,0.0,0.0,-999,0.00,,---,0.51,VWS V14.01,2013-06-30 01:14:00,
2013-06-29 21:15:00,65.3,-99.9,-100.00,NNW,340,0.0,0.0,-999,0.00,,---,0.51,VWS V14.01,2013-06-30 01:15:00,
2013-06-29 21:18:00,65.0,-99.9,-100.00,NNW,340,0.0,0.0,-999,0.00,,---,0.51,VWS V14.01,2013-06-30 01:18:00,
2013-06-29 21:19:00,65.0,-99.9,-100.00,NNW,340,0.0,0.0,-999,0.00,,---,0.51,VWS V14.01,2013-06-30 01:19:00,
2013-06-29 21:20:00,65.0,-99.9,-100.00,NNW,340,0.0,0.0,-999,0.00,,---,0.51,VWS V14.01,2013-06-30 01:20:00,
2013-06-29 21:23:00,65.0,-99.9,-100.00,NNW,340,0.0,0.0,-999,0.00,,---,0.51,VWS V14.01,2013-06-30 01:23:00,
2013-06-29 21:24:00,65.0,-99.9,-100.00,NNW,340,0.0,0.0,-999,0.00,,---,0.51,VWS V14.01,2013-06-30 01:24:00,
2013-06-29 21:25:00,65.0,-99.9,-100.00,NNW,340,0.0,0.0,-999,0.00,,---,0.51,VWS V14.01,2013-06-30 01:25:00,
2013-06-29 21:28:00,65.0,-99.9,-100.00,NNW,340,0.0,0.0,-999,0.00,,---,0.51,VWS V14.01,2013-06-30 01:28:00,
2013-06-29 21:29:00,65.0,-99.9,-100.00,NNW,340,0.0,0.0,-999,0.00,,---,0.51,VWS V14.01,2013-06-30 01:29:00,
2013-06-29 21:30:00,65.0,-99.9,-100.00,NNW,340,0.0,0.0,-999,0.00,,---,0.51,VWS V14.01,2013-06-30 01:30:00,
2013-06-29 21:31:00,65.0,-99.9,-100.00,NNW,340,0.0,0.0,-999,0.00,,---,0.51,VWS V14.01,2013-06-30 01:31:00,
2013-06-29 21:33:00,64.8,-99.9,-100.00,NNW,340,0.0,0.0,-999,0.00,,---,0.51,VWS V14.01,2013-06-30 01:33:00,
2013-06-29 21:34:00,64.8,-99.9,-100.00,NNW,340,0.0,0.0,-999,0.00,,---,0.51,VWS V14.01,2013-06-30 01:34:00,
2013-06-29 21:35:00,64.8,-99.9,-100.00,NNW,340,0.0,0.0,-999,0.00,,---,0.51,VWS V14.01,2013-06-30 01:35:00,
2013-06-29 21:36:00,65.3,-99.9,-100.00,NNW,340,0.0,0.0,-999,0.00,,---,0.51,VWS V14.01,2013-06-30 01:36:00,
2013-06-29 21:39:00,65.0,-99.9,-100.00,NNW,340,0.0,0.0,-999,0.00,,---,0.51,VWS V14.01,2013-06-30 01:39:00,
2013-06-29 21:40:00,65.0,-99.9,-100.00,NNW,340,0.0,0.0,-999,0.00,,---,0.51,VWS V14.01,2013-06-30 01:40:00,
2013-06-29 21:41:00,65.0,-99.9,-100.00,NNW,340,0.0,0.0,-999,0.00,,---,0.51,VWS V14.01,2013-06-30 01:41:00,
2013-06-29 21:44:00,65.0,-99.9,-100.00,NNW,340,0.0,0.0,-999,0.00,,---,0.51,VWS V14.01,2013-06-30 01:44:00,
2013-06-29 21:45:00,65.0,-99.9,-100.00,NNW,340,0.0,0.0,-999,0.00,,---,0.51,VWS V14.01,2013-06-30 01:45:00,
2013-06-29 21:46:00,65.0,-99.9,-100.00,NNW,340,0.0,0.0,-999,0.00,,---,0.51,VWS V14.01,2013-06-30 01:46:00,
2013-06-29 21:49:00,65.0,-99.9,-100.00,NNW,340,0.0,0.0,-999,0.00,,---,0.51,VWS V14.01,2013-06-30 01:49:00,
2013-06-29 21:50:00,65.0,-99.9,-100.00,NNW,340,0.0,0.0,-999,0.00,,---,0.51,VWS V14.01,2013-06-30 01:50:00,
2013-06-29 21:51:00,65.0,-99.9,-100.00,NNW,340,0.0,0.0,-999,0.00,,---,0.51,VWS V14.01,2013-06-30 01:51:00,
2013-06-29 21:54:00,65.0,-99.9,-100.00,NNW,340,0.0,0.0,-999,0.00,,---,0.51,VWS V14.01,2013-06-30 01:54:00,
2013-06-29 21:55:00,65.0,-99.9,-100.00,NNW,340,0.0,0.0,-999,0.00,,---,0.51,VWS V14.01,2013-06-30 01:55:00,
2013-06-29 21:56:00,65.0,-99.9,-100.00,NNW,340,0.0,0.0,-999,0.00,,---,0.51,VWS V14.01,2013-06-30 01:56:00,
2013-06-29 21:59:00,65.0,-99.9,-100.00,NNW,340,0.0,0.0,-999,0.00,,---,0.51,VWS V14.01,2013-06-30 01:59:00,
2013-06-29 22:00:00,64.8,-99.9,-100.00,NNW,340,0.0,0.0,-999,0.00,,---,0.51,VWS V14.01,2013-06-30 02:00:00,
2013-06-29 22:01:00,64.8,-99.9,-100.00,NNW,340,0.0,0.0,-999,0.00,,---,0.51,VWS V14.01,2013-06-30 02:01:00,
2013-06-29 22:04:00,65.0,-99.9,-100.00,NNW,340,0.0,0.0,-999,0.00,,---,0.51,VWS V14.01,2013-06-30 02:04:00,
2013-06-29 22:06:00,65.0,-99.9,-100.00,NNW,340,0.0,0.0,-999,0.00,,---,0.51,VWS V14.01,2013-06-30 02:06:00,
2013-06-29 22:09:00,64.8,-99.9,-100.00,NNW,340,0.0,0.0,-999,0.00,,---,0.51,VWS V14.01,2013-06-30 02:09:00,
2013-06-29 22:10:00,64.8,-99.9,-100.00,NNW,340,0.0,0.0,-999,0.00,,---,0.51,VWS V14.01,2013-06-30 02:10:00,
2013-06-29 22:11:00,65.0,-99.9,-100.00,NNW,340,0.0,0.0,-999,0.00,,---,0.51,VWS V14.01,2013-06-30 02:11:00,
2013-06-29 22:12:00,65.0,-99.9,-100.00,NNW,340,0.0,0.0,-999,0.00,,---,0.51,VWS V14.01,2013-06-30 02:12:00,
2013-06-29 22:14:00,64.8,-99.9,-100.00,NNW,340,0.0,0.0,-999,0.00,,---,0.51,VWS V14.01,2013-06-30 02:14:00,
2013-06-29 22:15:00,65.3,-99.9,-100.00,NNW,340,0.0,0.0,-999,0.00,,---,0.51,VWS V14.01,2013-06-30 02:15:00,
2013-06-29 22:16:00,65.0,-99.9,-100.00,NNW,340,0.0,0.0,-999,0.00,,---,0.51,VWS V14.01,2013-06-30 02:16:00,
2013-06-29 22:17:00,65.0,-99.9,-100.00,NNW,340,0.0,0.0,-999,0.00,,---,0.51,VWS V14.01,2013-06-30 02:17:00,
2013-06-29 22:20:00,65.0,-99.9,-100.00,NNW,340,0.0,0.0,-999,0.00,,---,0.51,VWS V14.01,2013-06-30 02:20:00,
2013-06-29 22:21:00,65.0,-99.9,-100.00,NNW,340,0.0,0.0,-999,0.00,,---,0.51,VWS V14.01,2013-06-30 02:21:00,
2013-06-29 22:22:00,64.8,-99.9,-100.00,NNW,340,0.0,0.0,-999,0.00,,---,0.51,VWS V14.01,2013-06-30 02:22:00,
2013-06-29 22:25:00,64.8,-99.9,-100.00,NNW,340,0.0,0.0,-999,0.00,,---,0.51,VWS V14.01,2013-06-30 02:25:00,
2013-06-29 22:26:00,65.0,-99.9,-100.00,NNW,340,0.0,0.0,-999,0.00,,---,0.51,VWS V14.01,2013-06-30 02:26:00,
2013-06-29 22:27:00,64.8,-99.9,-100.00,NNW,340,0.0,0.0,-999,0.00,,---,0.51,VWS V14.01,2013-06-30 02:27:00,
2013-06-29 22:30:00,64.4,-99.9,-100.00,NNW,340,0.0,0.0,-999,0.00,,---,0.51,VWS V14.01,2013-06-30 02:30:00,
2013-06-29 22:31:00,64.4,-99.9,-100.00,NNW,340,0.0,0.0,-999,0.00,,---,0.51,VWS V14.01,2013-06-30 02:31:00,
2013-06-29 22:32:00,64.4,-99.9,-100.00,NNW,340,0.0,0.0,-999,0.00,,---,0.51,VWS V14.01,2013-06-30 02:32:00,
2013-06-29 22:35:00,64.8,-99.9,-100.00,NNW,340,0.0,0.0,-999,0.00,,---,0.51,VWS V14.01,2013-06-30 02:35:00,
2013-06-29 22:36:00,64.4,-99.9,-100.00,NNW,340,0.0,0.0,-999,0.00,,---,0.51,VWS V14.01,2013-06-30 02:36:00,
2013-06-29 22:37:00,64.4,-99.9,-100.00,NNW,340,0.0,0.0,-999,0.00,,---,0.51,VWS V14.01,2013-06-30 02:37:00,
2013-06-29 22:40:00,64.8,-99.9,-100.00,NNW,340,0.0,0.0,-999,0.00,,---,0.51,VWS V14.01,2013-06-30 02:40:00,
2013-06-29 22:41:00,64.4,-99.9,-100.00,NNW,340,0.0,0.0,-999,0.00,,---,0.51,VWS V14.01,2013-06-30 02:41:00,
2013-06-29 22:42:00,65.0,-99.9,-100.00,NNW,340,0.0,0.0,-999,0.00,,---,0.51,VWS V14.01,2013-06-30 02:42:00,
2013-06-29 22:45:00,64.8,-99.9,-100.00,NNW,340,0.0,0.0,-999,0.00,,---,0.51,VWS V14.01,2013-06-30 02:45:00,
2013-06-29 22:46:00,64.8,-99.9,-100.00,NNW,340,0.0,0.0,-999,0.00,,---,0.51,VWS V14.01,2013-06-30 02:46:00,
2013-06-29 22:47:00,64.2,-99.9,-100.00,NNW,340,0.0,0.0,-999,0.00,,---,0.51,VWS V14.01,2013-06-30 02:47:00,
2013-06-29 22:48:00,64.2,-99.9,-100.00,NNW,340,0.0,0.0,-999,0.00,,---,0.51,VWS V14.01,2013-06-30 02:48:00,
2013-06-29 22:50:00,64.8,-99.9,-100.00,NNW,340,0.0,0.0,-999,0.00,,---,0.51,VWS V14.01,2013-06-30 02:50:00,
2013-06-29 22:51:00,64.4,-99.9,-100.00,NNW,340,0.0,0.0,-999,0.00,,---,0.51,VWS V14.01,2013-06-30 02:51:00,
2013-06-29 22:52:00,64.2,-99.9,-100.00,NNW,340,0.0,0.0,-999,0.00,,---,0.51,VWS V14.01,2013-06-30 02:52:00,
2013-06-29 22:53:00,64.4,-99.9,-100.00,NNW,340,0.0,0.0,-999,0.00,,---,0.51,VWS V14.01,2013-06-30 02:53:00,
2013-06-29 22:55:00,64.2,-99.9,-100.00,NNW,340,0.0,0.0,-999,0.00,,---,0.51,VWS V14.01,2013-06-30 02:55:00,
2013-06-29 22:56:00,64.2,-99.9,-100.00,NNW,340,0.0,0.0,-999,0.00,,---,0.51,VWS V14.01,2013-06-30 02:56:00,
2013-06-29 22:57:00,64.4,-99.9,-100.00,NNW,340,0.0,0.0,-999,0.00,,---,0.51,VWS V14.01,2013-06-30 02:57:00,
2013-06-29 22:58:00,64.2,-99.9,-100.00,NNW,340,0.0,0.0,-999,0.00,,---,0.51,VWS V14.01,2013-06-30 02:58:00,
2013-06-29 23:01:00,64.8,-99.9,-100.00,NNW,340,0.0,0.0,-999,0.00,,---,0.51,VWS V14.01,2013-06-30 03:01:00,
2013-06-29 23:02:00,64.2,-99.9,-100.00,NNW,340,0.0,0.0,-999,0.00,,---,0.51,VWS V14.01,2013-06-30 03:02:00,
2013-06-29 23:03:00,64.2,-99.9,-100.00,NNW,340,0.0,0.0,-999,0.00,,---,0.51,VWS V14.01,2013-06-30 03:03:00,
2013-06-29 23:06:00,64.2,-99.9,-100.00,NNW,340,0.0,0.0,-999,0.00,,---,0.51,VWS V14.01,2013-06-30 03:06:00,
2013-06-29 23:07:00,64.4,-99.9,-100.00,NNW,340,0.0,0.0,-999,0.00,,---,0.51,VWS V14.01,2013-06-30 03:07:00,
2013-06-29 23:08:00,64.2,-99.9,-100.00,NNW,340,0.0,0.0,-999,0.00,,---,0.51,VWS V14.01,2013-06-30 03:08:00,
2013-06-29 23:11:00,64.2,-99.9,-100.00,NNW,340,0.0,0.0,-999,0.00,,---,0.51,VWS V14.01,2013-06-30 03:11:00,
2013-06-29 23:12:00,64.2,-99.9,-100.00,NNW,340,0.0,0.0,-999,0.00,,---,0.51,VWS V14.01,2013-06-30 03:12:00,
2013-06-29 23:13:00,64.2,-99.9,-100.00,NNW,340,0.0,0.0,-999,0.00,,---,0.51,VWS V14.01,2013-06-30 03:13:00,
2013-06-29 23:16:00,64.2,-99.9,-100.00,NNW,340,0.0,0.0,-999,0.00,,---,0.51,VWS V14.01,2013-06-30 03:16:00,
2013-06-29 23:17:00,64.2,-99.9,-100.00,NNW,340,0.0,0.0,-999,0.00,,---,0.51,VWS V14.01,2013-06-30 03:17:00,
2013-06-29 23:18:00,63.9,-99.9,-100.00,NNW,340,0.0,0.0,-999,0.00,,---,0.51,VWS V14.01,2013-06-30 03:18:00,
2013-06-29 23:21:00,64.2,-99.9,-100.00,NNW,340,0.0,0.0,-999,0.00,,---,0.51,VWS V14.01,2013-06-30 03:21:00,
2013-06-29 23:22:00,64.2,-99.9,-100.00,NNW,340,0.0,0.0,-999,0.00,,---,0.51,VWS V14.01,2013-06-30 03:22:00,
2013-06-29 23:23:00,64.2,-99.9,-100.00,NNW,340,0.0,0.0,-999,0.00,,---,0.51,VWS V14.01,2013-06-30 03:23:00,
2013-06-29 23:26:00,64.2,-99.9,-100.00,NNW,340,0.0,0.0,-999,0.00,,---,0.51,VWS V14.01,2013-06-30 03:26:00,
2013-06-29 23:27:00,64.2,-99.9,-100.00,NNW,340,0.0,0.0,-999,0.00,,---,0.51,VWS V14.01,2013-06-30 03:27:00,
2013-06-29 23:28:00,64.4,-99.9,-100.00,NNW,340,0.0,0.0,-999,0.00,,---,0.51,VWS V14.01,2013-06-30 03:28:00,
2013-06-29 23:29:00,64.2,-99.9,-100.00,NNW,340,0.0,0.0,-999,0.00,,---,0.51,VWS V14.01,2013-06-30 03:29:00,
2013-06-29 23:31:00,64.2,-99.9,-100.00,NNW,340,0.0,0.0,-999,0.00,,---,0.51,VWS V14.01,2013-06-30 03:31:00,
2013-06-29 23:32:00,64.2,-99.9,-100.00,NNW,340,0.0,0.0,-999,0.00,,---,0.51,VWS V14.01,2013-06-30 03:32:00,
2013-06-29 23:33:00,63.9,-99.9,-100.00,NNW,340,0.0,0.0,-999,0.00,,---,0.51,VWS V14.01,2013-06-30 03:33:00,
2013-06-29 23:34:00,63.9,-99.9,-100.00,NNW,340,0.0,0.0,-999,0.00,,---,0.51,VWS V14.01,2013-06-30 03:34:00,
2013-06-29 23:36:00,63.9,-99.9,-100.00,NNW,340,0.0,0.0,-999,0.00,,---,0.51,VWS V14.01,2013-06-30 03:36:00,
2013-06-29 23:37:00,64.2,-99.9,-100.00,NNW,340,0.0,0.0,-999,0.00,,---,0.51,VWS V14.01,2013-06-30 03:37:00,
2013-06-29 23:38:00,64.2,-99.9,-100.00,NNW,340,0.0,0.0,-999,0.00,,---,0.51,VWS V14.01,2013-06-30 03:38:00,
2013-06-29 23:39:00,64.2,-99.9,-100.00,NNW,340,0.0,0.0,-999,0.00,,---,0.51,VWS V14.01,2013-06-30 03:39:00,
2013-06-29 23:41:00,63.9,-99.9,-100.00,NNW,340,0.0,0.0,-999,0.00,,---,0.51,VWS V14.01,2013-06-30 03:41:00,
2013-06-29 23:42:00,63.9,-99.9,-100.00,NNW,340,0.0,0.0,-999,0.00,,---,0.51,VWS V14.01,2013-06-30 03:42:00,
2013-06-29 23:43:00,64.2,-99.9,-100.00,NNW,340,0.0,0.0,-999,0.00,,---,0.51,VWS V14.01,2013-06-30 03:43:00,
2013-06-29 23:44:00,63.6,-99.9,-100.00,NNW,340,0.0,0.0,-999,0.00,,---,0.51,VWS V14.01,2013-06-30 03:44:00,
2013-06-29 23:47:00,63.9,-99.9,-100.00,NNW,340,0.0,0.0,-999,0.00,,---,0.51,VWS V14.01,2013-06-30 03:47:00,
2013-06-29 23:48:00,63.9,-99.9,-100.00,NNW,340,0.0,0.0,-999,0.00,,---,0.51,VWS V14.01,2013-06-30 03:48:00,
2013-06-29 23:49:00,63.9,-99.9,-100.00,NNW,340,0.0,0.0,-999,0.00,,---,0.51,VWS V14.01,2013-06-30 03:49:00,
2013-06-29 23:52:00,63.9,-99.9,-100.00,NNW,340,0.0,0.0,-999,0.00,,---,0.51,VWS V14.01,2013-06-30 03:52:00,
2013-06-29 23:53:00,64.2,-99.9,-100.00,NNW,340,0.0,0.0,-999,0.00,,---,0.51,VWS V14.01,2013-06-30 03:53:00,
2013-06-29 23:54:00,64.2,-99.9,-100.00,NNW,340,0.0,0.0,-999,0.00,,---,0.51,VWS V14.01,2013-06-30 03:54:00,
2013-06-29 23:55:00,63.9,-99.9,-100.00,NNW,340,0.0,0.0,-999,0.00,,---,0.51,VWS V14.01,2013-06-30 03:55:00,
2013-06-29 23:57:00,63.9,-99.9,-100.00,NNW,340,0.0,0.0,-999,0.00,,---,0.51,VWS V14.01,2013-06-30 03:57:00,
2013-06-29 23:59:00,64.2,-99.9,-100.00,NNW,340,0.0,0.0,-999,0.00,,---,0.51,VWS V14.01,2013-06-30 03:59:00,